Time,TemperatureF,DewpointF,PressureIn,WindDirection,WindDirectionDegrees,WindSpeedMPH,WindSpeedGustMPH,Humidity,HourlyPrecipIn,Conditions,Clouds,dailyrainin,SolarRadiationWatts/m^2,SoftwareType,DateUTC
2013-06-04 00:00:00,67.9,54.8,29.86,North,355,0.0,6.0,63,0.00,,BKN250,0.39,0.00,VWS V14.01,2013-06-04 04:00:00,
2013-06-04 00:01:00,68.0,54.5,29.86,North,360,1.0,4.0,62,0.00,,BKN100,0.39,0.00,VWS V14.01,2013-06-04 04:01:00,
2013-06-04 00:05:00,67.7,55.1,29.86,NNW,333,6.0,7.0,64,0.00,,BKN250,0.00,0.00,VWS V14.01,2013-06-04 04:05:00,
2013-06-04 00:06:00,67.8,54.8,29.86,North,355,3.0,5.0,63,0.00,,BKN100,0.00,0.00,VWS V14.01,2013-06-04 04:06:00,
2013-06-04 00:10:00,67.6,55.0,29.87,North,5,1.0,8.0,64,0.00,,BKN250,0.00,0.00,VWS V14.01,2013-06-04 04:10:00,
2013-06-04 00:11:00,67.6,55.0,29.86,North,5,5.0,7.0,64,0.00,,BKN100,0.00,0.00,VWS V14.01,2013-06-04 04:11:00,
2013-06-04 00:15:00,67.4,55.2,29.87,NNW,348,7.0,8.0,65,0.00,,BKN250,0.00,0.00,VWS V14.01,2013-06-04 04:15:00,
2013-06-04 00:16:00,67.5,54.9,29.87,North,5,2.0,8.0,64,0.00,,BKN100,0.00,0.00,VWS V14.01,2013-06-04 04:16:00,
2013-06-04 00:20:00,67.2,55.0,29.87,North,355,5.0,7.0,65,0.00,,BKN250,0.00,0.00,VWS V14.01,2013-06-04 04:20:00,
2013-06-04 00:21:00,67.3,54.7,29.87,North,5,4.0,7.0,64,0.00,,BKN100,0.00,0.00,VWS V14.01,2013-06-04 04:21:00,
2013-06-04 00:25:00,67.0,54.9,29.87,North,11,5.0,8.0,65,0.00,,BKN250,0.00,0.00,VWS V14.01,2013-06-04 04:25:00,
2013-06-04 00:26:00,67.1,55.0,29.87,North,9,3.0,7.0,65,0.00,,BKN100,0.00,0.00,VWS V14.01,2013-06-04 04:26:00,
2013-06-04 00:30:00,66.9,55.2,29.88,NNE,17,6.0,9.0,66,0.00,,BKN250,0.00,0.00,VWS V14.01,2013-06-04 04:30:00,
2013-06-04 00:31:00,67.0,55.3,29.88,NNE,22,6.0,9.0,66,0.00,,BKN100,0.00,0.00,VWS V14.01,2013-06-04 04:31:00,
2013-06-04 00:35:00,66.8,55.5,29.88,NNE,15,4.0,10.0,67,0.00,,BKN250,0.00,0.00,VWS V14.01,2013-06-04 04:35:00,
2013-06-04 00:36:00,66.9,55.6,29.88,NE,39,8.0,9.0,67,0.00,,BKN100,0.00,0.00,VWS V14.01,2013-06-04 04:36:00,
2013-06-04 00:40:00,66.6,55.7,29.88,North,351,5.0,8.0,68,0.00,,BKN250,0.00,0.00,VWS V14.01,2013-06-04 04:40:00,
2013-06-04 00:41:00,66.7,55.8,29.88,NNE,28,3.0,8.0,68,0.00,,BKN100,0.00,0.00,VWS V14.01,2013-06-04 04:41:00,
2013-06-04 00:45:00,66.4,55.9,29.88,NNE,18,5.0,9.0,69,0.00,,BKN250,0.00,0.00,VWS V14.01,2013-06-04 04:45:00,
2013-06-04 00:46:00,66.5,56.0,29.88,NNE,19,4.0,9.0,69,0.00,,BKN100,0.00,0.00,VWS V14.01,2013-06-04 04:46:00,
2013-06-04 00:50:00,66.2,56.1,29.89,North,11,2.0,8.0,70,0.00,,BKN250,0.00,0.00,VWS V14.01,2013-06-04 04:50:00,
2013-06-04 00:51:00,66.3,56.2,29.88,NNW,347,6.0,7.0,70,0.00,,BKN100,0.00,0.00,VWS V14.01,2013-06-04 04:51:00,
2013-06-04 00:55:00,66.0,56.0,29.89,NE,40,3.0,8.0,70,0.00,,BKN250,0.00,0.00,VWS V14.01,2013-06-04 04:55:00,
2013-06-04 00:56:00,66.1,56.0,29.89,NNE,30,2.0,8.0,70,0.00,,BKN100,0.00,0.00,VWS V14.01,2013-06-04 04:56:00,
2013-06-04 01:00:00,65.9,56.2,29.89,NNE,29,1.0,6.0,71,0.00,,BKN250,0.00,0.00,VWS V14.01,2013-06-04 05:00:00,
2013-06-04 01:01:00,65.9,56.2,29.88,NE,38,2.0,5.0,71,0.00,,BKN100,0.00,0.00,VWS V14.01,2013-06-04 05:01:00,
2013-06-04 01:05:00,65.6,55.2,29.89,NE,42,2.0,10.0,69,0.00,,BKN250,0.00,0.00,VWS V14.01,2013-06-04 05:05:00,
2013-06-04 01:06:00,65.8,55.4,29.89,NNE,16,7.0,8.0,69,0.00,,BKN100,0.00,0.00,VWS V14.01,2013-06-04 05:06:00,
2013-06-04 01:10:00,65.5,55.1,29.89,North,355,1.0,6.0,69,0.00,,BKN250,0.00,0.00,VWS V14.01,2013-06-04 05:10:00,
2013-06-04 01:11:00,65.6,55.2,29.89,North,10,2.0,6.0,69,0.00,,BKN100,0.00,0.00,VWS V14.01,2013-06-04 05:11:00,
2013-06-04 01:15:00,65.3,54.9,29.89,NNE,13,3.0,7.0,69,0.00,,BKN250,0.00,0.00,VWS V14.01,2013-06-04 05:15:00,
2013-06-04 01:16:00,65.4,55.0,29.89,ENE,60,5.0,7.0,69,0.00,,BKN100,0.00,0.00,VWS V14.01,2013-06-04 05:16:00,
2013-06-04 01:20:00,65.2,55.2,29.89,NNE,17,4.0,7.0,70,0.00,,BKN250,0.00,0.00,VWS V14.01,2013-06-04 05:20:00,
2013-06-04 01:21:00,65.3,55.3,29.89,NNE,15,6.0,7.0,70,0.00,,BKN100,0.00,0.00,VWS V14.01,2013-06-04 05:21:00,
2013-06-04 01:26:00,65.2,54.8,29.89,North,9,2.0,6.0,69,0.00,,BKN100,0.00,0.00,VWS V14.01,2013-06-04 05:26:00,
2013-06-04 01:30:00,64.9,54.5,29.89,NE,39,7.0,8.0,69,0.00,,BKN250,0.00,0.00,VWS V14.01,2013-06-04 05:30:00,
2013-06-04 01:31:00,65.0,54.6,29.89,NE,43,3.0,6.0,69,0.00,,BKN100,0.00,0.00,VWS V14.01,2013-06-04 05:31:00,
2013-06-04 01:35:00,64.6,54.2,29.89,NE,40,2.0,7.0,69,0.00,,BKN250,0.00,0.00,VWS V14.01,2013-06-04 05:35:00,
2013-06-04 01:36:00,64.9,54.5,29.89,NE,39,7.0,8.0,69,0.00,,BKN070,0.00,0.00,VWS V14.01,2013-06-04 05:36:00,
2013-06-04 01:40:00,64.3,53.9,29.89,NNE,31,4.0,10.0,69,0.00,,BKN250,0.00,0.00,VWS V14.01,2013-06-04 05:40:00,
2013-06-04 01:41:00,64.5,54.1,29.89,NNE,15,2.0,10.0,69,0.00,,BKN070,0.00,0.00,VWS V14.01,2013-06-04 05:41:00,
2013-06-04 01:45:00,64.1,53.7,29.89,North,5,6.0,9.0,69,0.00,,BKN250,0.00,0.00,VWS V14.01,2013-06-04 05:45:00,
2013-06-04 01:46:00,64.2,53.8,29.89,NNE,23,6.0,9.0,69,0.00,,BKN070,0.00,0.00,VWS V14.01,2013-06-04 05:46:00,
2013-06-04 01:50:00,63.8,53.5,29.90,NE,53,4.0,8.0,69,0.00,,BKN250,0.00,0.00,VWS V14.01,2013-06-04 05:50:00,
2013-06-04 01:51:00,63.9,53.5,29.90,North,5,5.0,8.0,69,0.00,,BKN070,0.00,0.00,VWS V14.01,2013-06-04 05:51:00,
2013-06-04 01:55:00,63.5,53.2,29.90,NNE,26,5.0,8.0,69,0.00,,BKN250,0.00,0.00,VWS V14.01,2013-06-04 05:55:00,
2013-06-04 01:56:00,63.6,52.9,29.90,North,5,2.0,8.0,68,0.00,,BKN070,0.00,0.00,VWS V14.01,2013-06-04 05:56:00,
2013-06-04 02:00:00,63.2,52.9,29.90,NNE,15,2.0,11.0,69,0.00,,BKN250,0.00,0.00,VWS V14.01,2013-06-04 06:00:00,
2013-06-04 02:02:00,63.3,53.0,29.90,NNE,20,7.0,7.0,69,0.00,,BKN070,0.00,0.00,VWS V14.01,2013-06-04 06:02:00,
2013-06-04 02:05:00,62.9,52.2,29.90,North,11,5.0,9.0,68,0.00,,BKN250,0.00,0.00,VWS V14.01,2013-06-04 06:05:00,
2013-06-04 02:07:00,63.0,52.7,29.90,North,11,8.0,9.0,69,0.00,,BKN070,0.00,0.00,VWS V14.01,2013-06-04 06:07:00,
2013-06-04 02:10:00,62.7,52.4,29.90,North,5,3.0,9.0,69,0.00,,BKN250,0.00,0.00,VWS V14.01,2013-06-04 06:10:00,
2013-06-04 02:12:00,62.8,52.1,29.90,NNE,32,3.0,7.0,68,0.00,,BKN070,0.00,0.00,VWS V14.01,2013-06-04 06:12:00,
2013-06-04 02:15:00,62.4,52.1,29.91,NNE,24,4.0,9.0,69,0.00,,BKN250,0.00,0.00,VWS V14.01,2013-06-04 06:15:00,
2013-06-04 02:17:00,62.5,52.2,29.91,NNE,19,5.0,8.0,69,0.00,,BKN070,0.00,0.00,VWS V14.01,2013-06-04 06:17:00,
2013-06-04 02:20:00,62.2,51.9,29.91,NNE,17,4.0,7.0,69,0.00,,BKN250,0.00,0.00,VWS V14.01,2013-06-04 06:20:00,
2013-06-04 02:22:00,62.3,52.0,29.91,NNW,342,7.0,7.0,69,0.00,,BKN070,0.00,0.00,VWS V14.01,2013-06-04 06:22:00,
2013-06-04 02:25:00,62.0,51.3,29.91,NE,55,3.0,8.0,68,0.00,,BKN250,0.00,0.00,VWS V14.01,2013-06-04 06:25:00,
2013-06-04 02:27:00,62.1,51.4,29.91,NNE,24,4.0,8.0,68,0.00,,BKN070,0.00,0.00,VWS V14.01,2013-06-04 06:27:00,
2013-06-04 02:30:00,61.8,51.1,29.91,North,360,7.0,11.0,68,0.00,,BKN250,0.00,0.00,VWS V14.01,2013-06-04 06:30:00,
2013-06-04 02:32:00,61.9,51.2,29.91,NE,55,6.0,11.0,68,0.00,,BKN070,0.00,0.00,VWS V14.01,2013-06-04 06:32:00,
2013-06-04 02:35:00,61.7,51.0,29.91,North,9,5.0,12.0,68,0.00,,BKN250,0.00,0.00,VWS V14.01,2013-06-04 06:35:00,
2013-06-04 02:37:00,61.7,51.0,29.91,ENE,78,3.0,12.0,68,0.00,,BKN090,0.00,0.00,VWS V14.01,2013-06-04 06:37:00,
2013-06-04 02:40:00,61.5,50.8,29.91,NNE,32,7.0,9.0,68,0.00,,BKN250,0.00,0.00,VWS V14.01,2013-06-04 06:40:00,
2013-06-04 02:42:00,61.6,51.0,29.91,North,5,7.0,8.0,68,0.00,,BKN090,0.00,0.00,VWS V14.01,2013-06-04 06:42:00,
2013-06-04 02:45:00,61.3,50.7,29.91,North,5,8.0,10.0,68,0.00,,BKN250,0.00,0.00,VWS V14.01,2013-06-04 06:45:00,
2013-06-04 02:47:00,61.3,50.7,29.91,NE,46,5.0,10.0,68,0.00,,BKN090,0.00,0.00,VWS V14.01,2013-06-04 06:47:00,
2013-06-04 02:50:00,61.1,50.1,29.91,NNE,16,2.0,12.0,67,0.00,,BKN250,0.00,0.00,VWS V14.01,2013-06-04 06:50:00,
2013-06-04 02:52:00,61.1,50.1,29.91,NNE,13,5.0,12.0,67,0.00,,BKN090,0.00,0.00,VWS V14.01,2013-06-04 06:52:00,
2013-06-04 02:55:00,60.9,49.9,29.91,NNE,31,3.0,9.0,67,0.00,,BKN250,0.00,0.00,VWS V14.01,2013-06-04 06:55:00,
2013-06-04 02:57:00,60.9,49.9,29.91,NE,52,3.0,8.0,67,0.00,,BKN090,0.00,0.00,VWS V14.01,2013-06-04 06:57:00,
2013-06-04 03:00:00,60.7,50.1,29.91,NE,53,3.0,8.0,68,0.00,,BKN250,0.00,0.00,VWS V14.01,2013-06-04 07:00:00,
2013-06-04 03:02:00,60.7,49.7,29.91,NNE,32,6.0,8.0,67,0.00,,BKN090,0.00,0.00,VWS V14.01,2013-06-04 07:02:00,
2013-06-04 03:05:00,60.4,50.2,29.91,NE,35,3.0,6.0,69,0.00,,BKN250,0.00,0.00,VWS V14.01,2013-06-04 07:05:00,
2013-06-04 03:07:00,60.5,49.9,29.91,NE,56,6.0,6.0,68,0.00,,BKN090,0.00,0.00,VWS V14.01,2013-06-04 07:07:00,
2013-06-04 03:10:00,60.2,50.0,29.91,NE,34,5.0,6.0,69,0.00,,BKN250,0.00,0.00,VWS V14.01,2013-06-04 07:10:00,
2013-06-04 03:12:00,60.3,50.1,29.91,North,11,6.0,6.0,69,0.00,,BKN090,0.00,0.00,VWS V14.01,2013-06-04 07:12:00,
2013-06-04 03:15:00,60.0,49.8,29.91,NNE,23,3.0,7.0,69,0.00,,BKN250,0.00,0.00,VWS V14.01,2013-06-04 07:15:00,
2013-06-04 03:17:00,60.1,49.9,29.91,NNE,30,5.0,7.0,69,0.00,,BKN090,0.00,0.00,VWS V14.01,2013-06-04 07:17:00,
2013-06-04 03:20:00,59.9,50.1,29.91,North,9,3.0,6.0,70,0.00,,BKN250,0.00,0.00,VWS V14.01,2013-06-04 07:20:00,
2013-06-04 03:22:00,59.9,50.1,29.91,NE,38,2.0,6.0,70,0.00,,BKN090,0.00,0.00,VWS V14.01,2013-06-04 07:22:00,
2013-06-04 03:25:00,59.7,49.9,29.91,North,355,1.0,6.0,70,0.00,,BKN250,0.00,0.00,VWS V14.01,2013-06-04 07:25:00,
2013-06-04 03:27:00,59.8,50.0,29.91,NE,34,4.0,6.0,70,0.00,,BKN090,0.00,0.00,VWS V14.01,2013-06-04 07:27:00,
2013-06-04 03:30:00,59.6,49.8,29.91,North,5,2.0,4.0,70,0.00,,BKN250,0.00,0.00,VWS V14.01,2013-06-04 07:30:00,
2013-06-04 03:32:00,59.6,49.8,29.91,North,355,1.0,3.0,70,0.00,,BKN090,0.00,0.00,VWS V14.01,2013-06-04 07:32:00,
2013-06-04 03:35:00,59.4,49.6,29.91,NNW,328,4.0,6.0,70,0.00,,BKN250,0.00,0.00,VWS V14.01,2013-06-04 07:35:00,
2013-06-04 03:37:00,59.5,49.7,29.91,NNE,28,2.0,5.0,70,0.00,,SCT050,0.00,0.00,VWS V14.01,2013-06-04 07:37:00,
2013-06-04 03:40:00,59.2,49.8,29.92,NNE,17,4.0,6.0,71,0.00,,BKN250,0.00,0.00,VWS V14.01,2013-06-04 07:40:00,
2013-06-04 03:42:00,59.3,49.5,29.92,NNW,344,4.0,6.0,70,0.00,,SCT050,0.00,0.00,VWS V14.01,2013-06-04 07:42:00,
2013-06-04 03:45:00,59.1,49.7,29.92,North,5,3.0,7.0,71,0.00,,BKN250,0.00,0.00,VWS V14.01,2013-06-04 07:45:00,
2013-06-04 03:47:00,59.1,49.7,29.92,NNW,348,5.0,7.0,71,0.00,,SCT050,0.00,0.00,VWS V14.01,2013-06-04 07:47:00,
2013-06-04 03:50:00,59.0,49.2,29.91,NNE,17,5.0,12.0,70,0.00,,BKN250,0.00,0.00,VWS V14.01,2013-06-04 07:50:00,
2013-06-04 03:52:00,59.0,49.2,29.91,NNE,28,7.0,12.0,70,0.00,,SCT050,0.00,0.00,VWS V14.01,2013-06-04 07:52:00,
2013-06-04 03:55:00,58.9,48.8,29.91,North,5,3.0,11.0,69,0.00,,BKN250,0.00,0.00,VWS V14.01,2013-06-04 07:55:00,
2013-06-04 03:57:00,58.9,49.2,29.92,North,360,4.0,11.0,70,0.00,,SCT050,0.00,0.00,VWS V14.01,2013-06-04 07:57:00,
2013-06-04 04:00:00,58.8,48.7,29.92,NNW,340,3.0,8.0,69,0.00,,BKN250,0.00,0.00,VWS V14.01,2013-06-04 08:00:00,
2013-06-04 04:02:00,58.8,48.7,29.92,NNE,20,2.0,8.0,69,0.00,,SCT050,0.00,0.00,VWS V14.01,2013-06-04 08:02:00,
2013-06-04 04:05:00,58.7,49.0,29.92,North,11,5.0,9.0,70,0.00,,BKN250,0.00,0.00,VWS V14.01,2013-06-04 08:05:00,
2013-06-04 04:07:00,58.7,49.0,29.92,NNE,21,2.0,5.0,70,0.00,,SCT050,0.00,0.00,VWS V14.01,2013-06-04 08:07:00,
2013-06-04 04:10:00,58.5,48.4,29.92,NNE,24,3.0,9.0,69,0.00,,BKN250,0.00,0.00,VWS V14.01,2013-06-04 08:10:00,
2013-06-04 04:12:00,58.5,48.4,29.92,NNE,12,4.0,9.0,69,0.00,,SCT050,0.00,0.00,VWS V14.01,2013-06-04 08:12:00,
2013-06-04 04:15:00,58.4,48.3,29.92,North,11,5.0,8.0,69,0.00,,BKN250,0.00,0.00,VWS V14.01,2013-06-04 08:15:00,
2013-06-04 04:17:00,58.4,48.3,29.92,NNE,19,4.0,8.0,69,0.00,,SCT050,0.00,0.00,VWS V14.01,2013-06-04 08:17:00,
2013-06-04 04:20:00,58.2,48.1,29.92,North,355,3.0,6.0,69,0.00,,BKN250,0.00,0.00,VWS V14.01,2013-06-04 08:20:00,
2013-06-04 04:22:00,58.3,48.2,29.92,North,5,4.0,5.0,69,0.00,,SCT050,0.00,0.00,VWS V14.01,2013-06-04 08:22:00,
2013-06-04 04:25:00,58.1,47.6,29.92,North,10,6.0,12.0,68,0.00,,BKN250,0.00,0.00,VWS V14.01,2013-06-04 08:25:00,
2013-06-04 04:27:00,58.2,48.1,29.92,NE,36,5.0,10.0,69,0.00,,SCT050,0.00,0.00,VWS V14.01,2013-06-04 08:27:00,
2013-06-04 04:30:00,58.1,47.6,29.92,North,5,7.0,10.0,68,0.00,,BKN250,0.00,0.00,VWS V14.01,2013-06-04 08:30:00,
2013-06-04 04:32:00,58.1,47.6,29.92,NNW,346,3.0,10.0,68,0.00,,SCT050,0.00,0.00,VWS V14.01,2013-06-04 08:32:00,
2013-06-04 04:35:00,58.0,47.5,29.93,North,360,7.0,13.0,68,0.00,,BKN250,0.00,0.00,VWS V14.01,2013-06-04 08:35:00,
2013-06-04 04:37:00,58.0,47.5,29.93,NNE,27,9.0,10.0,68,0.00,,SCT050,0.00,0.00,VWS V14.01,2013-06-04 08:37:00,
2013-06-04 04:40:00,57.9,47.4,29.93,NNE,24,8.0,10.0,68,0.00,,BKN250,0.00,0.00,VWS V14.01,2013-06-04 08:40:00,
2013-06-04 04:42:00,57.9,47.4,29.93,North,11,6.0,10.0,68,0.00,,SCT050,0.00,0.00,VWS V14.01,2013-06-04 08:42:00,
2013-06-04 04:45:00,57.8,47.7,29.93,NNE,17,9.0,10.0,69,0.00,,BKN250,0.00,0.00,VWS V14.01,2013-06-04 08:45:00,
2013-06-04 04:47:00,57.8,47.7,29.93,North,360,4.0,10.0,69,0.00,,SCT050,0.00,0.00,VWS V14.01,2013-06-04 08:47:00,
2013-06-04 04:50:00,57.6,47.5,29.93,North,355,7.0,9.0,69,0.00,,BKN250,0.00,0.00,VWS V14.01,2013-06-04 08:50:00,
2013-06-04 04:52:00,57.7,47.6,29.93,North,360,3.0,9.0,69,0.00,,SCT050,0.00,0.00,VWS V14.01,2013-06-04 08:52:00,
2013-06-04 04:55:00,57.5,47.4,29.93,North,5,4.0,7.0,69,0.00,,BKN250,0.00,0.00,VWS V14.01,2013-06-04 08:55:00,
2013-06-04 04:57:00,57.5,47.4,29.93,NNE,17,5.0,7.0,69,0.00,,SCT050,0.00,0.00,VWS V14.01,2013-06-04 08:57:00,
2013-06-04 05:00:00,57.3,46.8,29.93,NNE,19,4.0,10.0,68,0.00,,BKN250,0.00,0.00,VWS V14.01,2013-06-04 09:00:00,
2013-06-04 05:02:00,57.3,47.2,29.93,NNE,27,7.0,10.0,69,0.00,,SCT075,0.00,0.00,VWS V14.01,2013-06-04 09:02:00,
2013-06-04 05:05:00,57.2,47.1,29.94,North,9,5.0,6.0,69,0.00,,BKN250,0.00,0.00,VWS V14.01,2013-06-04 09:05:00,
2013-06-04 05:07:00,57.3,47.2,29.94,North,5,4.0,5.0,69,0.00,,SCT075,0.00,0.00,VWS V14.01,2013-06-04 09:07:00,
2013-06-04 05:10:00,57.1,47.0,29.94,NNE,19,1.0,8.0,69,0.00,,BKN250,0.00,0.00,VWS V14.01,2013-06-04 09:10:00,
2013-06-04 05:12:00,57.1,47.0,29.94,NNE,25,4.0,8.0,69,0.00,,SCT075,0.00,0.00,VWS V14.01,2013-06-04 09:12:00,
2013-06-04 05:15:00,57.0,47.3,29.94,North,9,0.0,6.0,70,0.00,,BKN250,0.00,0.00,VWS V14.01,2013-06-04 09:15:00,
2013-06-04 05:17:00,57.0,46.9,29.94,North,9,4.0,6.0,69,0.00,,SCT075,0.00,0.00,VWS V14.01,2013-06-04 09:17:00,
2013-06-04 05:20:00,56.8,47.1,29.94,NE,55,2.0,5.0,70,0.00,,BKN250,0.00,5.00,VWS V14.01,2013-06-04 09:20:00,
2013-06-04 05:22:00,56.9,47.2,29.94,NNE,23,3.0,5.0,70,0.00,,SCT075,0.00,0.00,VWS V14.01,2013-06-04 09:22:00,
2013-06-04 05:25:00,56.7,47.0,29.94,North,11,3.0,6.0,70,0.00,,BKN250,0.00,7.00,VWS V14.01,2013-06-04 09:25:00,
2013-06-04 05:27:00,56.8,47.1,29.94,NNE,22,3.0,6.0,70,0.00,,SCT075,0.00,5.00,VWS V14.01,2013-06-04 09:27:00,
2013-06-04 05:30:00,56.6,46.9,29.95,NNE,14,3.0,5.0,70,0.00,,BKN250,0.00,9.00,VWS V14.01,2013-06-04 09:30:00,
2013-06-04 05:32:00,56.6,46.9,29.95,NNE,14,4.0,5.0,70,0.00,,SCT075,0.00,7.00,VWS V14.01,2013-06-04 09:32:00,
2013-06-04 05:35:00,56.5,46.8,29.95,NNW,344,2.0,6.0,70,0.00,,BKN250,0.00,11.00,VWS V14.01,2013-06-04 09:35:00,
2013-06-04 05:37:00,56.6,46.9,29.95,NNW,329,4.0,6.0,70,0.00,,SCT060,0.00,11.00,VWS V14.01,2013-06-04 09:37:00,
2013-06-04 05:40:00,56.4,47.1,29.95,NNW,346,0.0,3.0,71,0.00,,BKN250,0.00,14.00,VWS V14.01,2013-06-04 09:40:00,
2013-06-04 05:42:00,56.5,46.8,29.95,NNW,346,2.0,3.0,70,0.00,,SCT060,0.00,12.00,VWS V14.01,2013-06-04 09:42:00,
2013-06-04 05:45:00,56.4,47.1,29.95,NNE,28,4.0,9.0,71,0.00,,BKN250,0.00,16.00,VWS V14.01,2013-06-04 09:45:00,
2013-06-04 05:47:00,56.4,47.1,29.95,NNW,346,1.0,5.0,71,0.00,,SCT060,0.00,16.00,VWS V14.01,2013-06-04 09:47:00,
2013-06-04 05:50:00,56.4,47.1,29.95,NNE,24,0.0,7.0,71,0.00,,BKN250,0.00,19.00,VWS V14.01,2013-06-04 09:50:00,
2013-06-04 05:52:00,56.4,47.1,29.95,ENE,57,0.0,5.0,71,0.00,,SCT060,0.00,16.00,VWS V14.01,2013-06-04 09:52:00,
2013-06-04 05:55:00,56.6,46.9,29.95,North,5,3.0,8.0,70,0.00,,BKN250,0.00,25.00,VWS V14.01,2013-06-04 09:55:00,
2013-06-04 05:57:00,56.5,47.2,29.95,NNE,24,2.0,4.0,71,0.00,,SCT060,0.00,21.00,VWS V14.01,2013-06-04 09:57:00,
2013-06-04 06:00:00,56.8,46.8,29.95,North,360,5.0,8.0,69,0.00,,BKN250,0.00,32.00,VWS V14.01,2013-06-04 10:00:00,
2013-06-04 06:02:00,56.7,46.7,29.95,NNE,32,4.0,7.0,69,0.00,,SCT060,0.00,28.00,VWS V14.01,2013-06-04 10:02:00,
2013-06-04 06:05:00,56.9,46.8,29.95,NNE,14,3.0,6.0,69,0.00,,BKN250,0.00,40.00,VWS V14.01,2013-06-04 10:05:00,
2013-06-04 06:07:00,56.9,46.8,29.95,NNE,32,4.0,6.0,69,0.00,,SCT060,0.00,37.00,VWS V14.01,2013-06-04 10:07:00,
2013-06-04 06:10:00,57.1,47.4,29.96,North,5,2.0,6.0,70,0.00,,BKN250,0.00,53.00,VWS V14.01,2013-06-04 10:10:00,
2013-06-04 06:12:00,57.1,47.0,29.95,NNE,22,3.0,6.0,69,0.00,,SCT060,0.00,46.00,VWS V14.01,2013-06-04 10:12:00,
2013-06-04 06:15:00,57.3,47.6,29.96,NNE,23,6.0,9.0,70,0.00,,BKN250,0.00,65.00,VWS V14.01,2013-06-04 10:15:00,
2013-06-04 06:17:00,57.2,47.5,29.96,North,11,3.0,6.0,70,0.00,,SCT060,0.00,58.00,VWS V14.01,2013-06-04 10:17:00,
2013-06-04 06:20:00,57.5,47.4,29.96,North,5,6.0,10.0,69,0.00,,BKN250,0.00,81.00,VWS V14.01,2013-06-04 10:20:00,
2013-06-04 06:22:00,57.4,47.3,29.96,NNE,17,5.0,10.0,69,0.00,,SCT060,0.00,72.00,VWS V14.01,2013-06-04 10:22:00,
2013-06-04 06:25:00,57.6,47.5,29.96,North,355,3.0,8.0,69,0.00,,BKN250,0.00,97.00,VWS V14.01,2013-06-04 10:25:00,
2013-06-04 06:27:00,57.6,47.5,29.96,NNE,26,5.0,7.0,69,0.00,,SCT060,0.00,86.00,VWS V14.01,2013-06-04 10:27:00,
2013-06-04 06:30:00,57.8,47.7,29.96,NNE,21,2.0,8.0,69,0.00,,BKN250,0.00,113.00,VWS V14.01,2013-06-04 10:30:00,
2013-06-04 06:32:00,57.7,47.6,29.96,North,10,5.0,8.0,69,0.00,,SCT060,0.00,102.00,VWS V14.01,2013-06-04 10:32:00,
2013-06-04 06:35:00,57.9,47.4,29.97,NNE,30,2.0,8.0,68,0.00,,BKN250,0.00,128.00,VWS V14.01,2013-06-04 10:35:00,
2013-06-04 06:37:00,57.8,47.3,29.97,NNE,19,7.0,8.0,68,0.00,,FEW060,0.00,118.00,VWS V14.01,2013-06-04 10:37:00,
2013-06-04 06:40:00,58.0,47.1,29.97,North,9,7.0,9.0,67,0.00,,BKN250,0.00,146.00,VWS V14.01,2013-06-04 10:40:00,
2013-06-04 06:42:00,58.0,47.1,29.97,NNE,14,7.0,9.0,67,0.00,,FEW060,0.00,137.00,VWS V14.01,2013-06-04 10:42:00,
2013-06-04 06:45:00,58.1,47.2,29.97,NNE,23,5.0,8.0,67,0.00,,BKN250,0.00,165.00,VWS V14.01,2013-06-04 10:45:00,
2013-06-04 06:47:00,58.1,47.6,29.97,NNE,20,5.0,7.0,68,0.00,,FEW060,0.00,158.00,VWS V14.01,2013-06-04 10:47:00,
2013-06-04 06:50:00,58.2,46.9,29.97,NNE,23,4.0,7.0,66,0.00,,BKN250,0.00,183.00,VWS V14.01,2013-06-04 10:50:00,
2013-06-04 06:52:00,58.2,46.9,29.97,NNE,12,4.0,7.0,66,0.00,,FEW060,0.00,176.00,VWS V14.01,2013-06-04 10:52:00,
2013-06-04 06:55:00,58.4,47.1,29.97,NNE,17,3.0,8.0,66,0.00,,BKN250,0.00,199.00,VWS V14.01,2013-06-04 10:55:00,
2013-06-04 06:57:00,58.3,47.4,29.97,North,360,8.0,8.0,67,0.00,,FEW060,0.00,195.00,VWS V14.01,2013-06-04 10:57:00,
2013-06-04 07:00:00,58.5,47.2,29.97,NNE,22,0.0,4.0,66,0.00,,BKN250,0.00,214.00,VWS V14.01,2013-06-04 11:00:00,
2013-06-04 07:02:00,58.4,47.1,29.97,NNE,22,2.0,4.0,66,0.00,,FEW060,0.00,206.00,VWS V14.01,2013-06-04 11:02:00,
2013-06-04 07:05:00,58.7,47.0,29.97,WNW,297,4.0,7.0,65,0.00,,BKN250,0.00,227.00,VWS V14.01,2013-06-04 11:05:00,
2013-06-04 07:07:00,58.6,47.3,29.97,NNE,22,2.0,4.0,66,0.00,,FEW060,0.00,221.00,VWS V14.01,2013-06-04 11:07:00,
2013-06-04 07:10:00,58.8,47.1,29.98,NNW,332,1.0,8.0,65,0.00,,BKN250,0.00,241.00,VWS V14.01,2013-06-04 11:10:00,
2013-06-04 07:12:00,58.8,46.7,29.97,NNE,25,5.0,8.0,64,0.00,,FEW060,0.00,237.00,VWS V14.01,2013-06-04 11:12:00,
2013-06-04 07:15:00,59.0,46.8,29.97,North,10,3.0,6.0,64,0.00,,BKN250,0.00,251.00,VWS V14.01,2013-06-04 11:15:00,
2013-06-04 07:17:00,58.9,47.2,29.97,NNW,331,0.0,6.0,65,0.00,,FEW060,0.00,251.00,VWS V14.01,2013-06-04 11:17:00,
2013-06-04 07:20:00,59.1,47.0,29.97,NNW,344,3.0,11.0,64,0.00,,BKN250,0.00,269.00,VWS V14.01,2013-06-04 11:20:00,
2013-06-04 07:22:00,59.1,47.0,29.97,NNE,14,1.0,6.0,64,0.00,,FEW060,0.00,264.00,VWS V14.01,2013-06-04 11:22:00,
2013-06-04 07:25:00,59.2,46.6,29.98,NNW,342,7.0,7.0,63,0.00,,BKN250,0.00,287.00,VWS V14.01,2013-06-04 11:25:00,
2013-06-04 07:27:00,59.1,46.5,29.98,NW,323,4.0,6.0,63,0.00,,FEW060,0.00,283.00,VWS V14.01,2013-06-04 11:27:00,
2013-06-04 07:30:00,59.3,47.1,29.98,North,355,3.0,10.0,64,0.00,,BKN250,0.00,304.00,VWS V14.01,2013-06-04 11:30:00,
2013-06-04 07:32:00,59.2,46.6,29.98,NNE,25,4.0,10.0,63,0.00,,FEW060,0.00,299.00,VWS V14.01,2013-06-04 11:32:00,
2013-06-04 07:35:00,59.4,47.2,29.98,WNW,290,5.0,11.0,64,0.00,,BKN250,0.00,316.00,VWS V14.01,2013-06-04 11:35:00,
2013-06-04 07:37:00,59.3,47.1,29.98,North,355,4.0,11.0,64,0.00,,FEW060,0.00,311.00,VWS V14.01,2013-06-04 11:37:00,
2013-06-04 07:40:00,59.5,47.3,29.98,NNE,12,4.0,8.0,64,0.00,,BKN250,0.00,334.00,VWS V14.01,2013-06-04 11:40:00,
2013-06-04 07:42:00,59.5,46.9,29.98,North,360,4.0,8.0,63,0.00,,FEW060,0.00,327.00,VWS V14.01,2013-06-04 11:42:00,
2013-06-04 07:45:00,59.7,47.1,29.98,North,360,8.0,9.0,63,0.00,,BKN250,0.00,348.00,VWS V14.01,2013-06-04 11:45:00,
2013-06-04 07:47:00,59.7,47.5,29.98,North,355,1.0,9.0,64,0.00,,FEW060,0.00,343.00,VWS V14.01,2013-06-04 11:47:00,
2013-06-04 07:50:00,59.8,46.8,29.98,WNW,282,3.0,9.0,62,0.00,,BKN250,0.00,364.00,VWS V14.01,2013-06-04 11:50:00,
2013-06-04 07:52:00,59.8,47.2,29.98,NNW,336,6.0,8.0,63,0.00,,FEW060,0.00,359.00,VWS V14.01,2013-06-04 11:52:00,
2013-06-04 07:55:00,60.0,47.0,29.98,NNW,331,2.0,9.0,62,0.00,,BKN250,0.00,373.00,VWS V14.01,2013-06-04 11:55:00,
2013-06-04 07:57:00,60.0,47.0,29.98,NNW,346,3.0,9.0,62,0.00,,FEW060,0.00,373.00,VWS V14.01,2013-06-04 11:57:00,
2013-06-04 08:00:00,60.1,46.6,29.98,North,355,2.0,9.0,61,0.00,,BKN250,0.00,396.00,VWS V14.01,2013-06-04 12:00:00,
2013-06-04 08:02:00,60.1,46.6,29.98,NNW,346,7.0,9.0,61,0.00,,CLR,0.00,390.00,VWS V14.01,2013-06-04 12:02:00,
2013-06-04 08:05:00,60.4,46.9,29.98,NW,317,6.0,10.0,61,0.00,,BKN250,0.00,413.00,VWS V14.01,2013-06-04 12:05:00,
2013-06-04 08:07:00,60.3,46.8,29.98,NNE,26,4.0,7.0,61,0.00,,CLR,0.00,406.00,VWS V14.01,2013-06-04 12:07:00,
2013-06-04 08:10:00,60.5,47.0,29.99,ENE,66,2.0,8.0,61,0.00,,BKN250,0.00,429.00,VWS V14.01,2013-06-04 12:10:00,
2013-06-04 08:12:00,60.4,46.9,29.99,NNE,25,6.0,8.0,61,0.00,,CLR,0.00,422.00,VWS V14.01,2013-06-04 12:12:00,
2013-06-04 08:15:00,60.6,46.7,29.99,NE,35,5.0,10.0,60,0.00,,BKN250,0.00,438.00,VWS V14.01,2013-06-04 12:15:00,
2013-06-04 08:17:00,60.6,46.2,29.99,NW,310,6.0,10.0,59,0.00,,CLR,0.00,436.00,VWS V14.01,2013-06-04 12:17:00,
2013-06-04 08:20:00,60.7,46.8,29.99,NNW,338,4.0,10.0,60,0.00,,BKN250,0.00,455.00,VWS V14.01,2013-06-04 12:20:00,
2013-06-04 08:22:00,60.6,46.7,29.99,NNE,24,7.0,10.0,60,0.00,,CLR,0.00,454.00,VWS V14.01,2013-06-04 12:22:00,
2013-06-04 08:25:00,60.7,46.8,29.99,NNW,344,7.0,9.0,60,0.00,,BKN250,0.00,471.00,VWS V14.01,2013-06-04 12:25:00,
2013-06-04 08:27:00,60.7,46.3,29.99,NNE,23,5.0,9.0,59,0.00,,CLR,0.00,468.00,VWS V14.01,2013-06-04 12:27:00,
2013-06-04 08:30:00,60.9,46.9,29.99,NNW,348,9.0,10.0,60,0.00,,BKN250,0.00,485.00,VWS V14.01,2013-06-04 12:30:00,
2013-06-04 08:32:00,60.8,46.8,29.99,North,10,8.0,10.0,60,0.00,,CLR,0.00,482.00,VWS V14.01,2013-06-04 12:32:00,
2013-06-04 08:35:00,60.9,46.5,29.99,North,350,6.0,9.0,59,0.00,,BKN250,0.00,504.00,VWS V14.01,2013-06-04 12:35:00,
2013-06-04 08:37:00,60.9,46.9,29.99,North,5,6.0,9.0,60,0.00,,CLR,0.00,494.00,VWS V14.01,2013-06-04 12:37:00,
2013-06-04 08:40:00,61.0,47.0,29.99,North,11,5.0,9.0,60,0.00,,BKN250,0.00,513.00,VWS V14.01,2013-06-04 12:40:00,
2013-06-04 08:42:00,60.9,46.5,29.98,NNE,17,5.0,9.0,59,0.00,,CLR,0.00,513.00,VWS V14.01,2013-06-04 12:42:00,
2013-06-04 08:45:00,61.3,47.3,29.99,North,5,6.0,8.0,60,0.00,,BKN250,0.00,534.00,VWS V14.01,2013-06-04 12:45:00,
2013-06-04 08:47:00,61.1,46.7,29.99,North,11,4.0,6.0,59,0.00,,CLR,0.00,513.00,VWS V14.01,2013-06-04 12:47:00,
2013-06-04 08:50:00,61.4,46.5,30.00,North,5,6.0,9.0,58,0.00,,BKN250,0.00,545.00,VWS V14.01,2013-06-04 12:50:00,
2013-06-04 08:52:00,61.4,46.0,29.99,NNW,345,2.0,9.0,57,0.00,,CLR,0.00,541.00,VWS V14.01,2013-06-04 12:52:00,
2013-06-04 08:55:00,61.5,46.6,30.00,NNW,348,4.0,9.0,58,0.00,,BKN250,0.00,559.00,VWS V14.01,2013-06-04 12:55:00,
2013-06-04 08:57:00,61.5,47.1,30.00,NE,45,5.0,9.0,59,0.00,,CLR,0.00,554.00,VWS V14.01,2013-06-04 12:57:00,
2013-06-04 09:00:00,61.7,46.8,30.00,NNW,342,3.0,8.0,58,0.00,,BKN250,0.00,575.00,VWS V14.01,2013-06-04 13:00:00,
2013-06-04 09:02:00,61.6,46.2,30.00,North,5,3.0,8.0,57,0.00,,CLR,0.00,566.00,VWS V14.01,2013-06-04 13:02:00,
2013-06-04 09:05:00,62.0,46.1,30.00,North,351,5.0,8.0,56,0.00,,BKN250,0.00,587.00,VWS V14.01,2013-06-04 13:05:00,
2013-06-04 09:07:00,61.9,46.5,30.00,NNE,15,8.0,8.0,57,0.00,,CLR,0.00,584.00,VWS V14.01,2013-06-04 13:07:00,
2013-06-04 09:10:00,62.1,46.2,30.00,North,360,4.0,7.0,56,0.00,,BKN250,0.00,601.00,VWS V14.01,2013-06-04 13:10:00,
2013-06-04 09:12:00,62.2,46.3,30.00,NNE,13,6.0,7.0,56,0.00,,CLR,0.00,594.00,VWS V14.01,2013-06-04 13:12:00,
2013-06-04 09:15:00,62.2,46.3,30.00,NNE,25,3.0,7.0,56,0.00,,BKN250,0.00,613.00,VWS V14.01,2013-06-04 13:15:00,
2013-06-04 09:17:00,62.1,46.2,30.00,ENE,59,1.0,7.0,56,0.00,,CLR,0.00,608.00,VWS V14.01,2013-06-04 13:17:00,
2013-06-04 09:20:00,62.4,46.5,30.00,North,355,8.0,9.0,56,0.00,,BKN250,0.00,626.00,VWS V14.01,2013-06-04 13:20:00,
2013-06-04 09:22:00,62.3,46.0,30.00,NNE,25,2.0,9.0,55,0.00,,CLR,0.00,622.00,VWS V14.01,2013-06-04 13:22:00,
2013-06-04 09:25:00,62.6,47.2,30.00,NE,38,5.0,8.0,57,0.00,,BKN250,0.00,642.00,VWS V14.01,2013-06-04 13:25:00,
2013-06-04 09:27:00,62.5,46.1,30.00,NNE,30,8.0,8.0,55,0.00,,CLR,0.00,635.00,VWS V14.01,2013-06-04 13:27:00,
2013-06-04 09:30:00,62.7,46.3,30.00,WNW,292,7.0,9.0,55,0.00,,BKN250,0.00,652.00,VWS V14.01,2013-06-04 13:30:00,
2013-06-04 09:32:00,62.7,45.8,30.00,WNW,293,3.0,9.0,54,0.00,,CLR,0.00,647.00,VWS V14.01,2013-06-04 13:32:00,
2013-06-04 09:35:00,62.4,46.5,30.01,NNW,344,2.0,7.0,56,0.00,,BKN250,0.00,664.00,VWS V14.01,2013-06-04 13:35:00,
2013-06-04 09:37:00,62.5,46.1,30.01,NNW,344,3.0,7.0,55,0.00,,CLR,0.00,661.00,VWS V14.01,2013-06-04 13:37:00,
2013-06-04 09:40:00,63.1,47.2,30.01,NNE,15,3.0,5.0,56,0.00,,BKN250,0.00,677.00,VWS V14.01,2013-06-04 13:40:00,
2013-06-04 09:42:00,62.8,46.9,30.01,ENE,59,4.0,5.0,56,0.00,,CLR,0.00,675.00,VWS V14.01,2013-06-04 13:42:00,
2013-06-04 09:45:00,63.4,47.0,30.01,NNW,332,1.0,7.0,55,0.00,,BKN250,0.00,691.00,VWS V14.01,2013-06-04 13:45:00,
2013-06-04 09:47:00,63.3,47.3,30.01,NNW,332,2.0,7.0,56,0.00,,CLR,0.00,687.00,VWS V14.01,2013-06-04 13:47:00,
2013-06-04 09:50:00,63.4,46.0,30.01,NNE,33,2.0,10.0,53,0.00,,BKN250,0.00,703.00,VWS V14.01,2013-06-04 13:50:00,
2013-06-04 09:52:00,63.5,46.6,30.01,NNE,13,7.0,10.0,54,0.00,,CLR,0.00,700.00,VWS V14.01,2013-06-04 13:52:00,
2013-06-04 09:55:00,63.7,46.8,30.01,NE,38,2.0,8.0,54,0.00,,BKN250,0.00,715.00,VWS V14.01,2013-06-04 13:55:00,
2013-06-04 09:57:00,63.5,46.1,30.01,NNE,32,3.0,8.0,53,0.00,,CLR,0.00,708.00,VWS V14.01,2013-06-04 13:57:00,
2013-06-04 10:00:00,64.0,46.0,30.01,North,5,3.0,7.0,52,0.00,,BKN250,0.00,726.00,VWS V14.01,2013-06-04 14:00:00,
2013-06-04 10:02:00,64.0,46.5,30.01,North,11,5.0,7.0,53,0.00,,CLR,0.00,722.00,VWS V14.01,2013-06-04 14:02:00,
2013-06-04 10:05:00,64.2,46.2,30.01,NNE,13,2.0,8.0,52,0.00,,BKN250,0.00,737.00,VWS V14.01,2013-06-04 14:05:00,
2013-06-04 10:07:00,64.1,46.6,30.01,NNW,348,7.0,8.0,53,0.00,,CLR,0.00,733.00,VWS V14.01,2013-06-04 14:07:00,
2013-06-04 10:10:00,64.6,46.6,30.01,ENE,59,2.0,6.0,52,0.00,,BKN250,0.00,747.00,VWS V14.01,2013-06-04 14:10:00,
2013-06-04 10:12:00,64.5,46.5,30.01,NNE,28,5.0,5.0,52,0.00,,CLR,0.00,745.00,VWS V14.01,2013-06-04 14:12:00,
2013-06-04 10:15:00,64.8,46.3,30.01,NNE,13,2.0,8.0,51,0.00,,BKN250,0.00,758.00,VWS V14.01,2013-06-04 14:15:00,
2013-06-04 10:17:00,64.7,46.7,30.01,NNE,30,2.0,8.0,52,0.00,,CLR,0.00,754.00,VWS V14.01,2013-06-04 14:17:00,
2013-06-04 10:20:00,65.1,46.5,30.01,NNW,346,2.0,6.0,51,0.00,,BKN250,0.00,768.00,VWS V14.01,2013-06-04 14:20:00,
2013-06-04 10:22:00,65.0,47.0,30.01,WNW,292,1.0,6.0,52,0.00,,CLR,0.00,765.00,VWS V14.01,2013-06-04 14:22:00,
2013-06-04 10:25:00,65.7,49.1,30.01,NNW,345,3.0,5.0,55,0.00,,BKN250,0.00,779.00,VWS V14.01,2013-06-04 14:25:00,
2013-06-04 10:27:00,65.4,47.8,30.00,South,173,0.0,5.0,53,0.00,,CLR,0.00,775.00,VWS V14.01,2013-06-04 14:27:00,
2013-06-04 10:30:00,65.6,47.0,30.01,West,272,6.0,7.0,51,0.00,,BKN250,0.00,788.00,VWS V14.01,2013-06-04 14:30:00,
2013-06-04 10:32:00,65.7,46.6,30.01,North,349,4.0,6.0,50,0.00,,CLR,0.00,788.00,VWS V14.01,2013-06-04 14:32:00,
2013-06-04 10:35:00,65.1,47.1,30.01,WNW,301,5.0,6.0,52,0.00,,BKN250,0.00,795.00,VWS V14.01,2013-06-04 14:35:00,
2013-06-04 10:37:00,65.3,47.2,30.01,NW,309,4.0,6.0,52,0.00,,CLR,0.00,795.00,VWS V14.01,2013-06-04 14:37:00,
2013-06-04 10:40:00,64.8,47.3,30.01,WSW,249,6.0,8.0,53,0.00,,BKN250,0.00,805.00,VWS V14.01,2013-06-04 14:40:00,
2013-06-04 10:42:00,64.9,46.9,30.01,NNE,18,4.0,6.0,52,0.00,,CLR,0.00,803.00,VWS V14.01,2013-06-04 14:42:00,
2013-06-04 10:45:00,64.9,47.9,30.01,NW,314,3.0,6.0,54,0.00,,BKN250,0.00,814.00,VWS V14.01,2013-06-04 14:45:00,
2013-06-04 10:47:00,64.8,47.8,30.01,SW,226,2.0,6.0,54,0.00,,CLR,0.00,810.00,VWS V14.01,2013-06-04 14:47:00,
2013-06-04 10:50:00,64.8,48.8,30.01,WSW,254,6.0,9.0,56,0.00,,BKN250,0.00,823.00,VWS V14.01,2013-06-04 14:50:00,
2013-06-04 10:52:00,64.7,47.7,30.01,WNW,286,2.0,9.0,54,0.00,,CLR,0.00,819.00,VWS V14.01,2013-06-04 14:52:00,
2013-06-04 10:55:00,64.8,48.3,30.01,West,277,1.0,7.0,55,0.00,,BKN250,0.00,831.00,VWS V14.01,2013-06-04 14:55:00,
2013-06-04 10:57:00,64.6,47.6,30.01,West,276,2.0,7.0,54,0.00,,CLR,0.00,828.00,VWS V14.01,2013-06-04 14:57:00,
2013-06-04 11:00:00,65.3,47.2,30.01,West,268,3.0,12.0,52,0.00,,BKN250,0.00,837.00,VWS V14.01,2013-06-04 15:00:00,
2013-06-04 11:02:00,65.3,47.8,30.01,NW,315,8.0,12.0,53,0.00,,CLR,0.00,837.00,VWS V14.01,2013-06-04 15:02:00,
2013-06-04 11:05:00,65.4,47.8,30.01,NNE,30,4.0,6.0,53,0.00,,BKN250,0.00,847.00,VWS V14.01,2013-06-04 15:05:00,
2013-06-04 11:07:00,65.1,47.1,30.01,North,5,0.0,6.0,52,0.00,,CLR,0.00,846.00,VWS V14.01,2013-06-04 15:07:00,
2013-06-04 11:10:00,65.8,47.2,30.01,WNW,283,4.0,7.0,51,0.00,,BKN250,0.00,854.00,VWS V14.01,2013-06-04 15:10:00,
2013-06-04 11:12:00,65.7,47.1,30.01,West,279,0.0,7.0,51,0.00,,CLR,0.00,853.00,VWS V14.01,2013-06-04 15:12:00,
2013-06-04 11:15:00,65.4,46.8,30.01,WSW,248,3.0,9.0,51,0.00,,BKN250,0.00,863.00,VWS V14.01,2013-06-04 15:15:00,
2013-06-04 11:17:00,65.5,47.4,30.01,WNW,296,7.0,9.0,52,0.00,,CLR,0.00,856.00,VWS V14.01,2013-06-04 15:17:00,
2013-06-04 11:20:00,66.0,48.9,30.01,SW,221,2.0,6.0,54,0.00,,BKN250,0.00,867.00,VWS V14.01,2013-06-04 15:20:00,
2013-06-04 11:22:00,65.7,47.6,30.01,WSW,242,4.0,6.0,52,0.00,,CLR,0.00,865.00,VWS V14.01,2013-06-04 15:22:00,
2013-06-04 11:25:00,66.1,47.5,30.01,North,10,3.0,14.0,51,0.00,,BKN250,0.00,874.00,VWS V14.01,2013-06-04 15:25:00,
2013-06-04 11:27:00,66.2,47.0,30.02,NE,39,2.0,14.0,50,0.00,,CLR,0.00,872.00,VWS V14.01,2013-06-04 15:27:00,
2013-06-04 11:30:00,66.4,48.3,30.02,WNW,302,0.0,11.0,52,0.00,,BKN250,0.00,879.00,VWS V14.01,2013-06-04 15:30:00,
2013-06-04 11:32:00,66.3,49.2,30.01,WNW,284,3.0,11.0,54,0.00,,CLR,0.00,879.00,VWS V14.01,2013-06-04 15:32:00,
2013-06-04 11:35:00,66.6,47.4,30.02,SW,236,6.0,8.0,50,0.00,,BKN250,0.00,888.00,VWS V14.01,2013-06-04 15:35:00,
2013-06-04 11:37:00,66.7,47.0,30.01,NW,319,6.0,8.0,49,0.00,,FEW055,0.00,884.00,VWS V14.01,2013-06-04 15:37:00,
2013-06-04 11:40:00,66.2,47.0,30.02,NNW,336,6.0,10.0,50,0.00,,BKN250,0.00,889.00,VWS V14.01,2013-06-04 15:40:00,
2013-06-04 11:42:00,66.3,46.6,30.02,NNE,15,7.0,9.0,49,0.00,,FEW055,0.00,891.00,VWS V14.01,2013-06-04 15:42:00,
2013-06-04 11:45:00,66.1,46.4,30.02,NNW,348,6.0,13.0,49,0.00,,BKN250,0.00,895.00,VWS V14.01,2013-06-04 15:45:00,
2013-06-04 11:47:00,66.2,46.5,30.02,NNW,327,2.0,10.0,49,0.00,,FEW055,0.00,895.00,VWS V14.01,2013-06-04 15:47:00,
2013-06-04 11:50:00,65.9,46.8,30.02,NNW,332,10.0,12.0,50,0.00,,BKN250,0.00,898.00,VWS V14.01,2013-06-04 15:50:00,
2013-06-04 11:52:00,65.9,46.8,30.02,NE,36,6.0,11.0,50,0.00,,FEW055,0.00,900.00,VWS V14.01,2013-06-04 15:52:00,
2013-06-04 11:55:00,66.1,46.4,30.02,WNW,295,2.0,10.0,49,0.00,,BKN250,0.00,905.00,VWS V14.01,2013-06-04 15:55:00,
2013-06-04 11:57:00,66.1,45.9,30.02,NNW,336,4.0,10.0,48,0.00,,FEW055,0.00,904.00,VWS V14.01,2013-06-04 15:57:00,
2013-06-04 12:00:00,66.3,47.1,30.02,NNW,327,3.0,11.0,50,0.00,,BKN250,0.00,911.00,VWS V14.01,2013-06-04 16:00:00,
2013-06-04 12:02:00,66.2,46.5,30.02,North,5,5.0,11.0,49,0.00,,FEW055,0.00,909.00,VWS V14.01,2013-06-04 16:02:00,
2013-06-04 12:05:00,66.7,47.0,30.02,NNW,327,2.0,8.0,49,0.00,,BKN250,0.00,914.00,VWS V14.01,2013-06-04 16:05:00,
2013-06-04 12:07:00,66.5,47.3,30.02,West,268,3.0,8.0,50,0.00,,FEW055,0.00,912.00,VWS V14.01,2013-06-04 16:07:00,
2013-06-04 12:10:00,67.0,47.2,30.02,WNW,300,4.0,8.0,49,0.00,,BKN250,0.00,918.00,VWS V14.01,2013-06-04 16:10:00,
2013-06-04 12:12:00,67.0,46.7,30.02,WSW,242,5.0,8.0,48,0.00,,FEW055,0.00,918.00,VWS V14.01,2013-06-04 16:12:00,
2013-06-04 12:15:00,67.4,46.5,30.02,NW,318,6.0,10.0,47,0.00,,BKN250,0.00,919.00,VWS V14.01,2013-06-04 16:15:00,
2013-06-04 12:17:00,67.3,46.4,30.02,North,360,2.0,9.0,47,0.00,,FEW055,0.00,919.00,VWS V14.01,2013-06-04 16:17:00,
2013-06-04 12:20:00,67.2,46.3,30.02,NNE,19,7.0,10.0,47,0.00,,BKN250,0.00,923.00,VWS V14.01,2013-06-04 16:20:00,
2013-06-04 12:22:00,67.3,46.4,30.02,NNW,348,6.0,10.0,47,0.00,,FEW055,0.00,923.00,VWS V14.01,2013-06-04 16:22:00,
2013-06-04 12:25:00,67.7,47.3,30.01,North,355,8.0,10.0,48,0.00,,BKN250,0.00,925.00,VWS V14.01,2013-06-04 16:25:00,
2013-06-04 12:27:00,67.4,47.0,30.01,North,355,1.0,10.0,48,0.00,,FEW055,0.00,921.00,VWS V14.01,2013-06-04 16:27:00,
2013-06-04 12:30:00,68.1,47.1,30.01,WNW,296,6.0,9.0,47,0.00,,BKN250,0.00,925.00,VWS V14.01,2013-06-04 16:30:00,
2013-06-04 12:32:00,67.9,47.0,30.01,NNW,333,3.0,9.0,47,0.00,,FEW055,0.00,925.00,VWS V14.01,2013-06-04 16:32:00,
2013-06-04 12:35:00,67.9,47.0,30.01,NNW,335,8.0,10.0,47,0.00,,BKN250,0.00,928.00,VWS V14.01,2013-06-04 16:35:00,
2013-06-04 12:37:00,68.1,47.1,30.01,WNW,296,6.0,9.0,47,0.00,,FEW055,0.00,925.00,VWS V14.01,2013-06-04 16:37:00,
2013-06-04 12:40:00,68.0,48.7,30.01,West,265,6.0,8.0,50,0.00,,BKN250,0.00,928.00,VWS V14.01,2013-06-04 16:40:00,
2013-06-04 12:42:00,67.8,46.3,30.01,NNW,340,1.0,8.0,46,0.00,,FEW055,0.00,928.00,VWS V14.01,2013-06-04 16:42:00,
2013-06-04 12:45:00,67.9,46.4,30.01,South,187,2.0,8.0,46,0.00,,BKN250,0.00,932.00,VWS V14.01,2013-06-04 16:45:00,
2013-06-04 12:47:00,68.1,48.2,30.01,NW,322,7.0,8.0,49,0.00,,FEW055,0.00,930.00,VWS V14.01,2013-06-04 16:47:00,
2013-06-04 12:50:00,68.2,46.7,30.01,WNW,286,4.0,9.0,46,0.00,,BKN250,0.00,932.00,VWS V14.01,2013-06-04 16:50:00,
2013-06-04 12:52:00,68.3,47.3,30.01,NNE,12,7.0,9.0,47,0.00,,FEW055,0.00,930.00,VWS V14.01,2013-06-04 16:52:00,
2013-06-04 12:55:00,68.4,47.4,30.01,SSE,167,3.0,5.0,47,0.00,,BKN250,0.00,930.00,VWS V14.01,2013-06-04 16:55:00,
2013-06-04 12:57:00,68.2,47.8,30.01,North,5,1.0,5.0,48,0.00,,FEW055,0.00,928.00,VWS V14.01,2013-06-04 16:57:00,
2013-06-04 13:00:00,69.4,47.2,30.01,West,270,4.0,8.0,45,0.00,,BKN250,0.00,930.00,VWS V14.01,2013-06-04 17:00:00,
2013-06-04 13:02:00,69.2,48.1,30.01,West,265,2.0,7.0,47,0.00,,FEW055,0.00,928.00,VWS V14.01,2013-06-04 17:02:00,
2013-06-04 13:05:00,69.4,48.3,30.01,WSW,247,4.0,9.0,47,0.00,,BKN250,0.00,932.00,VWS V14.01,2013-06-04 17:05:00,
2013-06-04 13:07:00,69.4,47.7,30.01,NNW,328,0.0,9.0,46,0.00,,FEW055,0.00,932.00,VWS V14.01,2013-06-04 17:07:00,
2013-06-04 13:10:00,70.0,48.3,30.00,SW,224,7.0,7.0,46,0.00,,BKN250,0.00,928.00,VWS V14.01,2013-06-04 17:10:00,
2013-06-04 13:12:00,69.8,48.7,30.00,West,262,4.0,7.0,47,0.00,,FEW055,0.00,926.00,VWS V14.01,2013-06-04 17:12:00,
2013-06-04 13:15:00,70.3,48.6,30.00,WSW,249,3.0,7.0,46,0.00,,BKN250,0.00,926.00,VWS V14.01,2013-06-04 17:15:00,
2013-06-04 13:17:00,70.2,48.5,30.00,WSW,250,6.0,7.0,46,0.00,,FEW055,0.00,930.00,VWS V14.01,2013-06-04 17:17:00,
2013-06-04 13:20:00,70.3,48.0,30.00,NNW,339,2.0,8.0,45,0.00,,BKN250,0.00,926.00,VWS V14.01,2013-06-04 17:20:00,
2013-06-04 13:22:00,70.3,48.0,30.00,West,277,4.0,8.0,45,0.00,,FEW055,0.00,928.00,VWS V14.01,2013-06-04 17:22:00,
2013-06-04 13:25:00,70.4,47.5,30.00,WNW,295,4.0,10.0,44,0.00,,BKN250,0.00,926.00,VWS V14.01,2013-06-04 17:25:00,
2013-06-04 13:27:00,70.4,47.5,30.00,WNW,302,3.0,7.0,44,0.00,,FEW055,0.00,926.00,VWS V14.01,2013-06-04 17:27:00,
2013-06-04 13:30:00,70.4,47.5,30.00,SW,234,5.0,9.0,44,0.00,,BKN250,0.00,923.00,VWS V14.01,2013-06-04 17:30:00,
2013-06-04 13:32:00,70.3,48.0,30.00,NNW,327,2.0,7.0,45,0.00,,FEW055,0.00,925.00,VWS V14.01,2013-06-04 17:32:00,
2013-06-04 13:35:00,70.1,47.8,30.00,West,259,3.0,12.0,45,0.00,,BKN250,0.00,921.00,VWS V14.01,2013-06-04 17:35:00,
2013-06-04 13:37:00,70.1,47.2,30.00,West,281,4.0,9.0,44,0.00,,FEW060,0.00,921.00,VWS V14.01,2013-06-04 17:37:00,
2013-06-04 13:40:00,69.9,47.6,29.99,NW,319,7.0,9.0,45,0.00,,BKN250,0.00,916.00,VWS V14.01,2013-06-04 17:40:00,
2013-06-04 13:42:00,69.9,47.6,29.99,WSW,254,6.0,9.0,45,0.00,,FEW060,0.00,919.00,VWS V14.01,2013-06-04 17:42:00,
2013-06-04 13:45:00,70.0,47.7,29.99,NW,320,7.0,9.0,45,0.00,,BKN250,0.00,912.00,VWS V14.01,2013-06-04 17:45:00,
2013-06-04 13:47:00,70.0,47.1,29.99,NNW,329,4.0,9.0,44,0.00,,FEW060,0.00,912.00,VWS V14.01,2013-06-04 17:47:00,
2013-06-04 13:50:00,69.9,47.6,29.99,NNW,330,5.0,8.0,45,0.00,,BKN250,0.00,911.00,VWS V14.01,2013-06-04 17:50:00,
2013-06-04 13:52:00,69.9,47.6,29.99,North,5,4.0,8.0,45,0.00,,FEW060,0.00,911.00,VWS V14.01,2013-06-04 17:52:00,
2013-06-04 13:55:00,70.4,47.5,29.99,WNW,289,5.0,8.0,44,0.00,,BKN250,0.00,905.00,VWS V14.01,2013-06-04 17:55:00,
2013-06-04 13:57:00,70.3,48.0,29.99,WNW,295,4.0,8.0,45,0.00,,FEW060,0.00,907.00,VWS V14.01,2013-06-04 17:57:00,
2013-06-04 14:00:00,70.8,48.4,29.99,WNW,290,2.0,8.0,45,0.00,,BKN250,0.00,904.00,VWS V14.01,2013-06-04 18:00:00,
2013-06-04 14:02:00,70.5,49.3,29.99,NW,310,1.0,8.0,47,0.00,,FEW060,0.00,904.00,VWS V14.01,2013-06-04 18:02:00,
2013-06-04 14:05:00,71.2,47.6,29.99,NW,319,1.0,7.0,43,0.00,,BKN250,0.00,900.00,VWS V14.01,2013-06-04 18:05:00,
2013-06-04 14:07:00,71.2,49.4,29.99,NW,313,6.0,7.0,46,0.00,,FEW060,0.00,900.00,VWS V14.01,2013-06-04 18:07:00,
2013-06-04 14:10:00,71.6,47.9,29.99,NNW,345,4.0,8.0,43,0.00,,BKN250,0.00,895.00,VWS V14.01,2013-06-04 18:10:00,
2013-06-04 14:12:00,71.5,48.5,29.99,North,360,4.0,8.0,44,0.00,,FEW060,0.00,896.00,VWS V14.01,2013-06-04 18:12:00,
2013-06-04 14:15:00,71.6,47.3,29.99,NNW,340,2.0,9.0,42,0.00,,BKN250,0.00,886.00,VWS V14.01,2013-06-04 18:15:00,
2013-06-04 14:17:00,71.7,47.4,29.99,NW,324,2.0,7.0,42,0.00,,FEW060,0.00,893.00,VWS V14.01,2013-06-04 18:17:00,
2013-06-04 14:20:00,71.7,48.7,29.99,NNE,16,2.0,9.0,44,0.00,,BKN250,0.00,881.00,VWS V14.01,2013-06-04 18:20:00,
2013-06-04 14:22:00,71.6,47.9,29.99,WNW,291,5.0,8.0,43,0.00,,FEW060,0.00,884.00,VWS V14.01,2013-06-04 18:22:00,
2013-06-04 14:25:00,71.5,48.5,29.99,NW,324,5.0,10.0,44,0.00,,BKN250,0.00,874.00,VWS V14.01,2013-06-04 18:25:00,
2013-06-04 14:27:00,71.6,47.9,29.99,WNW,295,4.0,10.0,43,0.00,,FEW060,0.00,877.00,VWS V14.01,2013-06-04 18:27:00,
2013-06-04 14:30:00,71.5,48.5,29.98,WNW,288,5.0,9.0,44,0.00,,BKN250,0.00,870.00,VWS V14.01,2013-06-04 18:30:00,
2013-06-04 14:32:00,71.5,47.8,29.98,NW,326,4.0,9.0,43,0.00,,FEW060,0.00,872.00,VWS V14.01,2013-06-04 18:32:00,
2013-06-04 14:35:00,71.5,47.2,29.98,NNW,345,2.0,8.0,42,0.00,,BKN250,0.00,865.00,VWS V14.01,2013-06-04 18:35:00,
2013-06-04 14:37:00,71.6,47.3,29.98,WNW,298,8.0,8.0,42,0.00,,FEW060,0.00,863.00,VWS V14.01,2013-06-04 18:37:00,
2013-06-04 14:40:00,71.3,47.7,29.98,NW,324,3.0,9.0,43,0.00,,BKN250,0.00,854.00,VWS V14.01,2013-06-04 18:40:00,
2013-06-04 14:42:00,71.3,47.0,29.98,West,279,7.0,9.0,42,0.00,,FEW060,0.00,858.00,VWS V14.01,2013-06-04 18:42:00,
2013-06-04 14:45:00,71.5,47.8,29.99,NE,41,1.0,10.0,43,0.00,,BKN250,0.00,847.00,VWS V14.01,2013-06-04 18:45:00,
2013-06-04 14:47:00,71.4,47.8,29.98,NNE,13,7.0,10.0,43,0.00,,FEW060,0.00,849.00,VWS V14.01,2013-06-04 18:47:00,
2013-06-04 14:50:00,71.9,48.2,29.98,WNW,292,2.0,10.0,43,0.00,,BKN250,0.00,838.00,VWS V14.01,2013-06-04 18:50:00,
2013-06-04 14:52:00,71.9,48.8,29.98,West,273,7.0,10.0,44,0.00,,FEW060,0.00,844.00,VWS V14.01,2013-06-04 18:52:00,
2013-06-04 14:55:00,72.3,48.6,29.98,SW,219,4.0,9.0,43,0.00,,BKN250,0.00,828.00,VWS V14.01,2013-06-04 18:55:00,
2013-06-04 14:57:00,72.1,48.4,29.98,WNW,303,8.0,9.0,43,0.00,,FEW060,0.00,833.00,VWS V14.01,2013-06-04 18:57:00,
2013-06-04 15:00:00,72.6,48.2,29.98,WNW,295,5.0,9.0,42,0.00,,BKN250,0.00,823.00,VWS V14.01,2013-06-04 19:00:00,
2013-06-04 15:02:00,72.6,48.8,29.98,WSW,249,3.0,9.0,43,0.00,,FEW060,0.00,824.00,VWS V14.01,2013-06-04 19:02:00,
2013-06-04 15:05:00,72.5,48.8,29.98,ENE,69,0.0,7.0,43,0.00,,BKN250,0.00,814.00,VWS V14.01,2013-06-04 19:05:00,
2013-06-04 15:07:00,72.4,49.3,29.99,WSW,248,3.0,7.0,44,0.00,,FEW060,0.00,814.00,VWS V14.01,2013-06-04 19:07:00,
2013-06-04 15:10:00,72.6,46.9,29.98,NW,315,5.0,9.0,40,0.00,,BKN250,0.00,805.00,VWS V14.01,2013-06-04 19:10:00,
2013-06-04 15:12:00,72.7,48.3,29.99,NW,323,6.0,9.0,42,0.00,,FEW060,0.00,807.00,VWS V14.01,2013-06-04 19:12:00,
2013-06-04 15:15:00,72.4,47.4,29.99,West,260,6.0,8.0,41,0.00,,BKN250,0.00,795.00,VWS V14.01,2013-06-04 19:15:00,
2013-06-04 15:17:00,72.4,47.4,29.99,North,5,4.0,8.0,41,0.00,,FEW060,0.00,802.00,VWS V14.01,2013-06-04 19:17:00,
2013-06-04 15:20:00,72.4,48.0,29.98,WSW,249,2.0,9.0,42,0.00,,BKN250,0.00,784.00,VWS V14.01,2013-06-04 19:20:00,
2013-06-04 15:22:00,72.4,48.0,29.98,WNW,295,7.0,9.0,42,0.00,,FEW060,0.00,788.00,VWS V14.01,2013-06-04 19:22:00,
2013-06-04 15:25:00,73.4,48.9,29.98,NNW,329,5.0,6.0,42,0.00,,BKN250,0.00,772.00,VWS V14.01,2013-06-04 19:25:00,
2013-06-04 15:27:00,73.1,49.9,29.98,NNW,345,2.0,4.0,44,0.00,,FEW060,0.00,777.00,VWS V14.01,2013-06-04 19:27:00,
2013-06-04 15:30:00,73.6,47.8,29.98,NNW,338,2.0,8.0,40,0.00,,BKN250,0.00,761.00,VWS V14.01,2013-06-04 19:30:00,
2013-06-04 15:32:00,73.5,47.7,29.98,NNW,337,4.0,8.0,40,0.00,,FEW060,0.00,766.00,VWS V14.01,2013-06-04 19:32:00,
2013-06-04 15:35:00,73.8,48.7,29.98,WSW,257,2.0,8.0,41,0.00,,BKN250,0.00,752.00,VWS V14.01,2013-06-04 19:35:00,
2013-06-04 15:37:00,73.8,48.0,29.98,WNW,295,2.0,8.0,40,0.00,,FEW060,0.00,754.00,VWS V14.01,2013-06-04 19:37:00,
2013-06-04 15:40:00,73.5,47.0,29.98,WNW,283,4.0,9.0,39,0.00,,BKN250,0.00,744.00,VWS V14.01,2013-06-04 19:40:00,
2013-06-04 15:42:00,73.6,47.1,29.98,WSW,240,5.0,9.0,39,0.00,,FEW060,0.00,744.00,VWS V14.01,2013-06-04 19:42:00,
2013-06-04 15:45:00,73.5,48.4,29.98,NW,307,4.0,9.0,41,0.00,,BKN250,0.00,729.00,VWS V14.01,2013-06-04 19:45:00,
2013-06-04 15:47:00,73.5,47.7,29.98,NNW,333,4.0,9.0,40,0.00,,FEW060,0.00,731.00,VWS V14.01,2013-06-04 19:47:00,
2013-06-04 15:50:00,73.6,48.5,29.98,NNW,348,4.0,10.0,41,0.00,,BKN250,0.00,719.00,VWS V14.01,2013-06-04 19:50:00,
2013-06-04 15:52:00,73.5,47.7,29.98,WSW,252,2.0,10.0,40,0.00,,FEW060,0.00,722.00,VWS V14.01,2013-06-04 19:52:00,
2013-06-04 15:55:00,73.8,47.3,29.98,NNE,17,3.0,10.0,39,0.00,,BKN250,0.00,712.00,VWS V14.01,2013-06-04 19:55:00,
2013-06-04 15:57:00,73.8,47.3,29.98,WSW,258,7.0,10.0,39,0.00,,FEW060,0.00,712.00,VWS V14.01,2013-06-04 19:57:00,
2013-06-04 16:00:00,74.1,48.3,29.98,North,355,4.0,9.0,40,0.00,,BKN250,0.00,698.00,VWS V14.01,2013-06-04 20:00:00,
2013-06-04 16:02:00,74.0,46.8,29.98,North,11,1.0,9.0,38,0.00,,FEW060,0.00,700.00,VWS V14.01,2013-06-04 20:02:00,
2013-06-04 16:05:00,74.2,47.0,29.98,North,5,4.0,9.0,38,0.00,,BKN250,0.00,684.00,VWS V14.01,2013-06-04 20:05:00,
2013-06-04 16:07:00,74.2,46.3,29.98,WNW,288,4.0,9.0,37,0.00,,FEW060,0.00,687.00,VWS V14.01,2013-06-04 20:07:00,
2013-06-04 16:10:00,74.4,47.2,29.98,ENE,67,2.0,9.0,38,0.00,,BKN250,0.00,673.00,VWS V14.01,2013-06-04 20:10:00,
2013-06-04 16:12:00,74.4,47.2,29.98,NNW,342,3.0,9.0,38,0.00,,FEW060,0.00,675.00,VWS V14.01,2013-06-04 20:12:00,
2013-06-04 16:15:00,74.8,46.8,29.98,North,5,4.0,11.0,37,0.00,,BKN250,0.00,661.00,VWS V14.01,2013-06-04 20:15:00,
2013-06-04 16:17:00,74.7,47.4,29.98,NNW,328,5.0,8.0,38,0.00,,FEW060,0.00,663.00,VWS V14.01,2013-06-04 20:17:00,
2013-06-04 16:20:00,74.7,46.7,29.98,North,350,0.0,9.0,37,0.00,,BKN250,0.00,647.00,VWS V14.01,2013-06-04 20:20:00,
2013-06-04 16:22:00,74.7,46.0,29.98,North,355,8.0,9.0,36,0.00,,FEW060,0.00,654.00,VWS V14.01,2013-06-04 20:22:00,
2013-06-04 16:25:00,75.0,48.4,29.98,NNW,332,0.0,7.0,39,0.00,,BKN250,0.00,636.00,VWS V14.01,2013-06-04 20:25:00,
2013-06-04 16:27:00,74.9,46.9,29.98,NW,318,4.0,7.0,37,0.00,,FEW060,0.00,636.00,VWS V14.01,2013-06-04 20:27:00,
2013-06-04 16:30:00,75.3,46.5,29.98,NW,326,4.0,7.0,36,0.00,,BKN250,0.00,621.00,VWS V14.01,2013-06-04 20:30:00,
2013-06-04 16:32:00,75.3,47.3,29.98,WNW,300,2.0,7.0,37,0.00,,FEW060,0.00,624.00,VWS V14.01,2013-06-04 20:32:00,
2013-06-04 16:35:00,75.1,47.1,29.98,NW,308,6.0,8.0,37,0.00,,BKN250,0.00,606.00,VWS V14.01,2013-06-04 20:35:00,
2013-06-04 16:37:00,75.2,46.4,29.98,WSW,250,7.0,7.0,36,0.00,,FEW070,0.00,610.00,VWS V14.01,2013-06-04 20:37:00,
2013-06-04 16:40:00,75.0,47.0,29.98,NW,312,2.0,7.0,37,0.00,,BKN250,0.00,592.00,VWS V14.01,2013-06-04 20:40:00,
2013-06-04 16:42:00,74.9,46.9,29.98,NNW,340,3.0,6.0,37,0.00,,FEW070,0.00,598.00,VWS V14.01,2013-06-04 20:42:00,
2013-06-04 16:45:00,75.1,46.3,29.98,NNW,343,3.0,8.0,36,0.00,,BKN250,0.00,578.00,VWS V14.01,2013-06-04 20:45:00,
2013-06-04 16:47:00,75.1,47.1,29.98,WNW,296,2.0,8.0,37,0.00,,FEW070,0.00,584.00,VWS V14.01,2013-06-04 20:47:00,
2013-06-04 16:50:00,75.2,47.2,29.97,NW,313,5.0,8.0,37,0.00,,BKN250,0.00,570.00,VWS V14.01,2013-06-04 20:50:00,
2013-06-04 16:52:00,75.1,47.1,29.97,NNW,344,4.0,8.0,37,0.00,,FEW070,0.00,570.00,VWS V14.01,2013-06-04 20:52:00,
2013-06-04 16:55:00,75.2,47.2,29.97,NNE,28,6.0,8.0,37,0.00,,BKN250,0.00,554.00,VWS V14.01,2013-06-04 20:55:00,
2013-06-04 16:57:00,75.2,46.4,29.97,NW,321,5.0,8.0,36,0.00,,FEW070,0.00,557.00,VWS V14.01,2013-06-04 20:57:00,
2013-06-04 17:00:00,75.1,46.3,29.97,North,355,3.0,10.0,36,0.00,,BKN250,0.00,540.00,VWS V14.01,2013-06-04 21:00:00,
2013-06-04 17:02:00,75.2,46.4,29.97,NNW,336,8.0,10.0,36,0.00,,FEW070,0.00,543.00,VWS V14.01,2013-06-04 21:02:00,
2013-06-04 17:05:00,75.1,46.3,29.97,North,350,6.0,9.0,36,0.00,,BKN250,0.00,524.00,VWS V14.01,2013-06-04 21:05:00,
2013-06-04 17:07:00,75.1,46.3,29.97,NW,319,4.0,9.0,36,0.00,,FEW070,0.00,529.00,VWS V14.01,2013-06-04 21:07:00,
2013-06-04 17:10:00,75.0,45.5,29.97,NNE,17,2.0,11.0,35,0.00,,BKN250,0.00,508.00,VWS V14.01,2013-06-04 21:10:00,
2013-06-04 17:12:00,75.0,45.5,29.97,North,360,5.0,11.0,35,0.00,,FEW070,0.00,515.00,VWS V14.01,2013-06-04 21:12:00,
2013-06-04 17:15:00,75.2,46.4,29.97,NNW,342,4.0,5.0,36,0.00,,BKN250,0.00,494.00,VWS V14.01,2013-06-04 21:15:00,
2013-06-04 17:17:00,75.0,47.0,29.97,NW,321,2.0,5.0,37,0.00,,FEW070,0.00,499.00,VWS V14.01,2013-06-04 21:17:00,
2013-06-04 17:20:00,75.4,46.6,29.97,West,269,1.0,7.0,36,0.00,,BKN250,0.00,478.00,VWS V14.01,2013-06-04 21:20:00,
2013-06-04 17:22:00,75.3,46.5,29.97,WSW,245,2.0,7.0,36,0.00,,FEW070,0.00,482.00,VWS V14.01,2013-06-04 21:22:00,
2013-06-04 17:25:00,75.6,45.3,29.97,West,275,9.0,9.0,34,0.00,,BKN250,0.00,466.00,VWS V14.01,2013-06-04 21:25:00,
2013-06-04 17:27:00,75.6,46.0,29.97,NNW,346,6.0,7.0,35,0.00,,FEW070,0.00,476.00,VWS V14.01,2013-06-04 21:27:00,
2013-06-04 17:30:00,75.3,45.8,29.97,North,355,2.0,10.0,35,0.00,,BKN250,0.00,450.00,VWS V14.01,2013-06-04 21:30:00,
2013-06-04 17:32:00,75.4,45.9,29.97,NW,317,5.0,9.0,35,0.00,,FEW070,0.00,452.00,VWS V14.01,2013-06-04 21:32:00,
2013-06-04 17:35:00,75.1,45.6,29.98,West,265,7.0,9.0,35,0.00,,BKN250,0.00,436.00,VWS V14.01,2013-06-04 21:35:00,
2013-06-04 17:37:00,75.2,45.7,29.98,SSW,198,4.0,8.0,35,0.00,,FEW070,0.00,436.00,VWS V14.01,2013-06-04 21:37:00,
2013-06-04 17:40:00,74.9,46.2,29.98,North,349,2.0,7.0,36,0.00,,BKN250,0.00,418.00,VWS V14.01,2013-06-04 21:40:00,
2013-06-04 17:42:00,74.9,46.2,29.98,NNE,13,4.0,7.0,36,0.00,,FEW070,0.00,427.00,VWS V14.01,2013-06-04 21:42:00,
2013-06-04 17:45:00,74.9,46.2,29.98,NNW,328,4.0,7.0,36,0.00,,BKN250,0.00,408.00,VWS V14.01,2013-06-04 21:45:00,
2013-06-04 17:47:00,74.9,46.2,29.98,NW,306,1.0,6.0,36,0.00,,FEW070,0.00,410.00,VWS V14.01,2013-06-04 21:47:00,
2013-06-04 17:50:00,75.0,46.3,29.98,WNW,290,6.0,8.0,36,0.00,,BKN250,0.00,390.00,VWS V14.01,2013-06-04 21:50:00,
2013-06-04 17:52:00,75.0,46.3,29.98,WNW,282,2.0,7.0,36,0.00,,FEW070,0.00,394.00,VWS V14.01,2013-06-04 21:52:00,
2013-06-04 17:55:00,75.0,46.3,29.98,NNW,348,3.0,8.0,36,0.00,,BKN250,0.00,374.00,VWS V14.01,2013-06-04 21:55:00,
2013-06-04 17:57:00,74.9,45.4,29.98,North,360,1.0,8.0,35,0.00,,FEW070,0.00,376.00,VWS V14.01,2013-06-04 21:57:00,
2013-06-04 18:00:00,75.2,46.4,29.98,WNW,286,7.0,7.0,36,0.00,,BKN250,0.00,348.00,VWS V14.01,2013-06-04 22:00:00,
2013-06-04 18:02:00,75.1,46.3,29.98,NW,324,3.0,4.0,36,0.00,,FEW070,0.00,329.00,VWS V14.01,2013-06-04 22:02:00,
2013-06-04 18:05:00,75.3,46.5,29.98,NW,322,1.0,9.0,36,0.00,,BKN250,0.00,343.00,VWS V14.01,2013-06-04 22:05:00,
2013-06-04 18:07:00,75.2,46.4,29.98,NW,319,3.0,9.0,36,0.00,,FEW070,0.00,343.00,VWS V14.01,2013-06-04 22:07:00,
2013-06-04 18:10:00,75.6,46.0,29.98,NW,326,3.0,6.0,35,0.00,,BKN250,0.00,334.00,VWS V14.01,2013-06-04 22:10:00,
2013-06-04 18:12:00,75.5,46.0,29.98,NW,311,1.0,4.0,35,0.00,,FEW070,0.00,336.00,VWS V14.01,2013-06-04 22:12:00,
2013-06-04 18:15:00,75.7,46.9,29.98,WNW,302,3.0,6.0,36,0.00,,BKN250,0.00,302.00,VWS V14.01,2013-06-04 22:15:00,
2013-06-04 18:17:00,75.6,47.5,29.98,WSW,248,5.0,5.0,37,0.00,,FEW070,0.00,318.00,VWS V14.01,2013-06-04 22:17:00,
2013-06-04 18:20:00,75.7,46.9,29.98,North,11,5.0,6.0,36,0.00,,BKN250,0.00,279.00,VWS V14.01,2013-06-04 22:20:00,
2013-06-04 18:22:00,75.7,47.6,29.98,North,355,1.0,4.0,37,0.00,,FEW070,0.00,292.00,VWS V14.01,2013-06-04 22:22:00,
2013-06-04 18:25:00,75.6,46.8,29.98,NNW,331,3.0,8.0,36,0.00,,BKN250,0.00,267.00,VWS V14.01,2013-06-04 22:25:00,
2013-06-04 18:27:00,75.6,47.5,29.98,NNE,21,0.0,7.0,37,0.00,,FEW070,0.00,276.00,VWS V14.01,2013-06-04 22:27:00,
2013-06-04 18:30:00,75.6,46.8,29.98,WNW,293,0.0,4.0,36,0.00,,BKN250,0.00,257.00,VWS V14.01,2013-06-04 22:30:00,
2013-06-04 18:32:00,75.6,46.8,29.98,NNW,333,2.0,4.0,36,0.00,,FEW070,0.00,257.00,VWS V14.01,2013-06-04 22:32:00,
2013-06-04 18:35:00,75.6,46.0,29.98,NW,324,1.0,5.0,35,0.00,,BKN250,0.00,253.00,VWS V14.01,2013-06-04 22:35:00,
2013-06-04 18:37:00,75.6,46.0,29.98,WNW,302,2.0,4.0,35,0.00,,FEW250,0.00,255.00,VWS V14.01,2013-06-04 22:37:00,
2013-06-04 18:40:00,75.5,46.0,29.99,WNW,284,1.0,3.0,35,0.00,,BKN250,0.00,227.00,VWS V14.01,2013-06-04 22:40:00,
2013-06-04 18:42:00,75.5,46.0,29.98,SSW,202,2.0,3.0,35,0.00,,FEW250,0.00,232.00,VWS V14.01,2013-06-04 22:42:00,
2013-06-04 18:45:00,75.4,48.0,29.99,WNW,283,2.0,4.0,38,0.00,,BKN250,0.00,195.00,VWS V14.01,2013-06-04 22:45:00,
2013-06-04 18:47:00,75.4,46.6,29.99,West,259,3.0,4.0,36,0.00,,FEW250,0.00,206.00,VWS V14.01,2013-06-04 22:47:00,
2013-06-04 18:50:00,75.3,47.3,29.99,WNW,286,1.0,3.0,37,0.00,,BKN250,0.00,171.00,VWS V14.01,2013-06-04 22:50:00,
2013-06-04 18:52:00,75.3,47.3,29.99,WNW,294,0.0,3.0,37,0.00,,FEW250,0.00,181.00,VWS V14.01,2013-06-04 22:52:00,
2013-06-04 18:55:00,75.1,46.3,29.99,NW,312,2.0,7.0,36,0.00,,BKN250,0.00,153.00,VWS V14.01,2013-06-04 22:55:00,
2013-06-04 18:57:00,75.1,47.1,29.99,NW,312,2.0,7.0,37,0.00,,FEW250,0.00,155.00,VWS V14.01,2013-06-04 22:57:00,
2013-06-04 19:00:00,74.9,46.9,29.99,NNW,336,0.0,4.0,37,0.00,,BKN250,0.00,134.00,VWS V14.01,2013-06-04 23:00:00,
2013-06-04 19:02:00,74.9,46.9,29.99,NNW,336,1.0,4.0,37,0.00,,FEW250,0.00,146.00,VWS V14.01,2013-06-04 23:02:00,
2013-06-04 19:05:00,74.8,46.8,29.99,NNW,336,0.0,1.0,37,0.00,,BKN250,0.00,120.00,VWS V14.01,2013-06-04 23:05:00,
2013-06-04 19:07:00,74.8,47.5,29.99,NNW,336,0.0,1.0,38,0.00,,FEW250,0.00,120.00,VWS V14.01,2013-06-04 23:07:00,
2013-06-04 19:10:00,74.8,48.9,30.00,NNW,336,1.0,2.0,40,0.00,,BKN250,0.00,116.00,VWS V14.01,2013-06-04 23:10:00,
2013-06-04 19:12:00,74.8,47.5,30.00,NNW,336,0.0,2.0,38,0.00,,FEW250,0.00,118.00,VWS V14.01,2013-06-04 23:12:00,
2013-06-04 19:15:00,74.7,47.4,30.00,NNW,336,2.0,3.0,38,0.00,,BKN250,0.00,107.00,VWS V14.01,2013-06-04 23:15:00,
2013-06-04 19:17:00,74.7,48.8,30.00,NNW,336,2.0,2.0,40,0.00,,FEW250,0.00,113.00,VWS V14.01,2013-06-04 23:17:00,
2013-06-04 19:20:00,74.4,48.5,30.00,NNW,336,2.0,3.0,40,0.00,,BKN250,0.00,93.00,VWS V14.01,2013-06-04 23:20:00,
2013-06-04 19:22:00,74.5,47.9,30.00,NNW,336,1.0,3.0,39,0.00,,FEW250,0.00,102.00,VWS V14.01,2013-06-04 23:22:00,
2013-06-04 19:25:00,74.2,49.7,30.00,NNW,336,0.0,2.0,42,0.00,,BKN250,0.00,77.00,VWS V14.01,2013-06-04 23:25:00,
2013-06-04 19:27:00,74.3,49.1,30.00,NNW,336,0.0,2.0,41,0.00,,FEW250,0.00,83.00,VWS V14.01,2013-06-04 23:27:00,
2013-06-04 19:30:00,74.0,51.9,30.00,NNW,336,1.0,1.0,46,0.00,,BKN250,0.00,70.00,VWS V14.01,2013-06-04 23:30:00,
2013-06-04 19:32:00,74.0,50.1,30.00,NNW,336,0.0,1.0,43,0.00,,FEW250,0.00,74.00,VWS V14.01,2013-06-04 23:32:00,
2013-06-04 19:35:00,73.7,52.2,30.00,NNW,336,0.0,1.0,47,0.00,,BKN250,0.00,54.00,VWS V14.01,2013-06-04 23:35:00,
2013-06-04 19:37:00,73.8,52.3,30.00,NNW,336,0.0,1.0,47,0.00,,FEW250,0.00,58.00,VWS V14.01,2013-06-04 23:37:00,
2013-06-04 19:40:00,73.2,51.8,30.00,NNW,336,0.0,0.0,47,0.00,,BKN250,0.00,39.00,VWS V14.01,2013-06-04 23:40:00,
2013-06-04 19:42:00,73.3,51.9,30.00,NNW,336,0.0,0.0,47,0.00,,FEW250,0.00,51.00,VWS V14.01,2013-06-04 23:42:00,
2013-06-04 19:45:00,72.8,50.2,30.01,NNW,336,0.0,2.0,45,0.00,,BKN250,0.00,30.00,VWS V14.01,2013-06-04 23:45:00,
2013-06-04 19:47:00,73.0,51.0,30.00,NNW,336,0.0,1.0,46,0.00,,FEW250,0.00,30.00,VWS V14.01,2013-06-04 23:47:00,
2013-06-04 19:50:00,72.3,50.4,30.01,NNW,336,1.0,1.0,46,0.00,,BKN250,0.00,25.00,VWS V14.01,2013-06-04 23:50:00,
2013-06-04 19:52:00,72.5,51.2,30.01,NNW,336,0.0,1.0,47,0.00,,FEW250,0.00,26.00,VWS V14.01,2013-06-04 23:52:00,
2013-06-04 19:55:00,71.5,50.8,30.01,NNW,336,1.0,3.0,48,0.00,,BKN250,0.00,21.00,VWS V14.01,2013-06-04 23:55:00,
2013-06-04 19:57:00,71.7,50.4,30.01,NNW,336,0.0,3.0,47,0.00,,FEW250,0.00,23.00,VWS V14.01,2013-06-04 23:57:00,
2013-06-04 20:00:00,70.9,49.7,30.01,NNW,336,0.0,2.0,47,0.00,,BKN250,0.00,18.00,VWS V14.01,2013-06-05 00:00:00,
2013-06-04 20:02:00,71.1,50.4,30.01,NNW,336,0.0,2.0,48,0.00,,FEW250,0.00,19.00,VWS V14.01,2013-06-05 00:02:00,
2013-06-04 20:05:00,70.4,49.8,30.01,NNW,336,0.0,2.0,48,0.00,,BKN250,0.00,14.00,VWS V14.01,2013-06-05 00:05:00,
2013-06-04 20:07:00,70.5,49.9,30.01,NNW,336,0.0,1.0,48,0.00,,FEW250,0.00,14.00,VWS V14.01,2013-06-05 00:07:00,
2013-06-04 20:10:00,69.9,51.0,30.01,NNW,336,0.0,0.0,51,0.00,,BKN250,0.00,9.00,VWS V14.01,2013-06-05 00:10:00,
2013-06-04 20:12:00,70.0,50.5,30.01,NNW,336,0.0,0.0,50,0.00,,FEW250,0.00,11.00,VWS V14.01,2013-06-05 00:12:00,
2013-06-04 20:15:00,69.2,50.3,30.01,NNW,336,0.0,2.0,51,0.00,,BKN250,0.00,5.00,VWS V14.01,2013-06-05 00:15:00,
2013-06-04 20:17:00,69.4,50.5,30.01,NNW,336,0.0,2.0,51,0.00,,FEW250,0.00,7.00,VWS V14.01,2013-06-05 00:17:00,
2013-06-04 20:20:00,68.6,48.7,30.01,NNW,336,0.0,2.0,49,0.00,,BKN250,0.00,0.00,VWS V14.01,2013-06-05 00:20:00,
2013-06-04 20:22:00,68.7,48.8,30.01,NNW,336,0.0,2.0,49,0.00,,FEW250,0.00,5.00,VWS V14.01,2013-06-05 00:22:00,
2013-06-04 20:25:00,68.2,49.9,30.02,NNW,336,0.0,0.0,52,0.00,,BKN250,0.00,0.00,VWS V14.01,2013-06-05 00:25:00,
2013-06-04 20:27:00,68.3,49.5,30.02,NNW,336,0.0,0.0,51,0.00,,FEW250,0.00,0.00,VWS V14.01,2013-06-05 00:27:00,
2013-06-04 20:30:00,67.8,50.6,30.02,NNW,336,0.0,0.0,54,0.00,,BKN250,0.00,0.00,VWS V14.01,2013-06-05 00:30:00,
2013-06-04 20:32:00,67.9,50.7,30.02,NNW,336,0.0,0.0,54,0.00,,BKN250,0.00,0.00,VWS V14.01,2013-06-05 00:32:00,
2013-06-04 20:35:00,67.3,50.6,30.02,NNW,336,0.0,0.0,55,0.00,,BKN250,0.00,0.00,VWS V14.01,2013-06-05 00:35:00,
2013-06-04 20:37:00,67.4,49.7,30.02,NNW,336,0.0,0.0,53,0.00,,BKN250,0.00,0.00,VWS V14.01,2013-06-05 00:37:00,
2013-06-04 20:40:00,66.8,48.6,30.02,NNW,336,0.0,0.0,52,0.00,,BKN250,0.00,0.00,VWS V14.01,2013-06-05 00:40:00,
2013-06-04 20:42:00,67.0,48.8,30.02,NNW,336,0.0,0.0,52,0.00,,BKN250,0.00,0.00,VWS V14.01,2013-06-05 00:42:00,
2013-06-04 20:45:00,66.3,49.2,30.03,NNW,336,0.0,0.0,54,0.00,,BKN250,0.00,0.00,VWS V14.01,2013-06-05 00:45:00,
2013-06-04 20:47:00,66.4,49.8,30.03,NNW,336,0.0,0.0,55,0.00,,BKN250,0.00,0.00,VWS V14.01,2013-06-05 00:47:00,
2013-06-04 20:50:00,65.9,49.8,30.03,NNW,336,0.0,1.0,56,0.00,,BKN250,0.00,0.00,VWS V14.01,2013-06-05 00:50:00,
2013-06-04 20:52:00,66.0,49.4,30.03,NNW,336,0.0,0.0,55,0.00,,BKN250,0.00,0.00,VWS V14.01,2013-06-05 00:52:00,
2013-06-04 20:55:00,65.6,50.0,30.03,NNW,336,0.0,1.0,57,0.00,,BKN250,0.00,0.00,VWS V14.01,2013-06-05 00:55:00,
2013-06-04 20:57:00,65.7,50.1,30.03,NNW,336,0.0,1.0,57,0.00,,BKN250,0.00,0.00,VWS V14.01,2013-06-05 00:57:00,
2013-06-04 21:00:00,65.4,49.8,30.03,NNW,336,0.0,1.0,57,0.00,,BKN250,0.00,0.00,VWS V14.01,2013-06-05 01:00:00,
2013-06-04 21:02:00,65.5,50.3,30.03,NNW,336,1.0,1.0,58,0.00,,BKN250,0.00,0.00,VWS V14.01,2013-06-05 01:02:00,
2013-06-04 21:05:00,65.1,48.5,30.04,NNW,336,0.0,1.0,55,0.00,,BKN250,0.00,0.00,VWS V14.01,2013-06-05 01:05:00,
2013-06-04 21:07:00,65.2,48.6,30.04,NNW,336,1.0,1.0,55,0.00,,BKN250,0.00,0.00,VWS V14.01,2013-06-05 01:07:00,
2013-06-04 21:10:00,64.9,48.4,30.04,NNW,336,0.0,2.0,55,0.00,,BKN250,0.00,0.00,VWS V14.01,2013-06-05 01:10:00,
2013-06-04 21:12:00,64.9,48.4,30.04,NNW,336,0.0,2.0,55,0.00,,BKN250,0.00,0.00,VWS V14.01,2013-06-05 01:12:00,
2013-06-04 21:15:00,64.8,49.2,30.04,NNW,336,0.0,1.0,57,0.00,,BKN250,0.00,0.00,VWS V14.01,2013-06-05 01:15:00,
2013-06-04 21:17:00,64.8,48.8,30.04,NNW,336,0.0,1.0,56,0.00,,BKN250,0.00,0.00,VWS V14.01,2013-06-05 01:17:00,
2013-06-04 21:20:00,64.6,49.0,30.05,NNW,336,0.0,2.0,57,0.00,,BKN250,0.00,0.00,VWS V14.01,2013-06-05 01:20:00,
2013-06-04 21:22:00,64.6,49.0,30.05,NNW,336,0.0,1.0,57,0.00,,BKN250,0.00,0.00,VWS V14.01,2013-06-05 01:22:00,
2013-06-04 21:25:00,64.4,48.8,30.05,NNW,336,1.0,1.0,57,0.00,,BKN250,0.00,0.00,VWS V14.01,2013-06-05 01:25:00,
2013-06-04 21:27:00,64.4,50.2,30.05,NNW,336,0.0,1.0,60,0.00,,BKN250,0.00,0.00,VWS V14.01,2013-06-05 01:27:00,
2013-06-04 21:30:00,64.2,48.2,30.05,NNW,336,0.0,3.0,56,0.00,,BKN250,0.00,0.00,VWS V14.01,2013-06-05 01:30:00,
2013-06-04 21:32:00,64.2,47.7,30.05,NNW,336,1.0,3.0,55,0.00,,BKN250,0.00,0.00,VWS V14.01,2013-06-05 01:32:00,
2013-06-04 21:35:00,64.3,47.3,30.06,WNW,292,0.0,1.0,54,0.00,,BKN250,0.00,0.00,VWS V14.01,2013-06-05 01:35:00,
2013-06-04 21:37:00,64.2,48.2,30.05,NNW,336,0.0,3.0,56,0.00,,BKN250,0.00,0.00,VWS V14.01,2013-06-05 01:37:00,
2013-06-04 21:40:00,64.5,48.5,30.06,West,272,0.0,3.0,56,0.00,,BKN250,0.00,0.00,VWS V14.01,2013-06-05 01:40:00,
2013-06-04 21:42:00,64.4,47.4,30.06,West,272,0.0,3.0,54,0.00,,BKN250,0.00,0.00,VWS V14.01,2013-06-05 01:42:00,
2013-06-04 21:45:00,64.6,48.1,30.06,NW,307,0.0,3.0,55,0.00,,BKN250,0.00,0.00,VWS V14.01,2013-06-05 01:45:00,
2013-06-04 21:47:00,64.6,48.1,30.06,NW,307,0.0,3.0,55,0.00,,BKN250,0.00,0.00,VWS V14.01,2013-06-05 01:47:00,
2013-06-04 21:50:00,64.6,47.1,30.06,NW,306,1.0,2.0,53,0.00,,BKN250,0.00,0.00,VWS V14.01,2013-06-05 01:50:00,
2013-06-04 21:52:00,64.6,47.1,30.06,NW,306,1.0,2.0,53,0.00,,BKN250,0.00,0.00,VWS V14.01,2013-06-05 01:52:00,
2013-06-04 21:55:00,64.7,47.2,30.07,WNW,302,2.0,3.0,53,0.00,,BKN250,0.00,0.00,VWS V14.01,2013-06-05 01:55:00,
2013-06-04 21:57:00,64.7,47.2,30.07,WNW,302,1.0,2.0,53,0.00,,BKN250,0.00,0.00,VWS V14.01,2013-06-05 01:57:00,
2013-06-04 22:00:00,64.8,46.8,30.07,WNW,302,3.0,3.0,52,0.00,,BKN250,0.00,0.00,VWS V14.01,2013-06-05 02:00:00,
2013-06-04 22:02:00,64.8,46.8,30.07,WNW,303,2.0,3.0,52,0.00,,BKN250,0.00,0.00,VWS V14.01,2013-06-05 02:02:00,
2013-06-04 22:05:00,65.0,47.0,30.07,WNW,298,0.0,3.0,52,0.00,,BKN250,0.00,0.00,VWS V14.01,2013-06-05 02:05:00,
2013-06-04 22:07:00,64.9,46.4,30.07,WNW,298,0.0,3.0,51,0.00,,BKN250,0.00,0.00,VWS V14.01,2013-06-05 02:07:00,
2013-06-04 22:10:00,65.0,46.5,30.07,NNW,334,0.0,4.0,51,0.00,,BKN250,0.00,0.00,VWS V14.01,2013-06-05 02:10:00,
2013-06-04 22:12:00,65.0,47.0,30.07,WNW,298,3.0,3.0,52,0.00,,BKN250,0.00,0.00,VWS V14.01,2013-06-05 02:12:00,
2013-06-04 22:15:00,65.1,46.5,30.07,WNW,298,4.0,4.0,51,0.00,,BKN250,0.00,0.00,VWS V14.01,2013-06-05 02:15:00,
2013-06-04 22:17:00,65.1,46.5,30.07,NNW,333,0.0,3.0,51,0.00,,BKN250,0.00,0.00,VWS V14.01,2013-06-05 02:17:00,
2013-06-04 22:20:00,65.2,46.6,30.07,NW,325,0.0,4.0,51,0.00,,BKN250,0.00,0.00,VWS V14.01,2013-06-05 02:20:00,
2013-06-04 22:22:00,65.2,46.6,30.07,NW,325,0.0,4.0,51,0.00,,BKN250,0.00,0.00,VWS V14.01,2013-06-05 02:22:00,
2013-06-04 22:25:00,65.2,46.1,30.07,WNW,302,0.0,6.0,50,0.00,,BKN250,0.00,0.00,VWS V14.01,2013-06-05 02:25:00,
2013-06-04 22:27:00,65.2,46.1,30.07,WNW,293,1.0,6.0,50,0.00,,BKN250,0.00,0.00,VWS V14.01,2013-06-05 02:27:00,
2013-06-04 22:30:00,65.3,46.2,30.08,NW,315,0.0,4.0,50,0.00,,BKN250,0.00,0.00,VWS V14.01,2013-06-05 02:30:00,
2013-06-04 22:32:00,65.3,46.2,30.08,NW,315,1.0,4.0,50,0.00,,BKN250,0.00,0.00,VWS V14.01,2013-06-05 02:32:00,
2013-06-04 22:35:00,65.4,46.3,30.08,NW,308,0.0,7.0,50,0.00,,BKN250,0.00,0.00,VWS V14.01,2013-06-05 02:35:00,
2013-06-04 22:37:00,65.3,46.2,30.08,NW,308,3.0,7.0,50,0.00,,FEW250,0.00,0.00,VWS V14.01,2013-06-05 02:37:00,
2013-06-04 22:40:00,65.4,46.3,30.07,WNW,294,0.0,3.0,50,0.00,,BKN250,0.00,0.00,VWS V14.01,2013-06-05 02:40:00,
2013-06-04 22:42:00,65.4,46.3,30.07,NW,309,1.0,3.0,50,0.00,,FEW250,0.00,0.00,VWS V14.01,2013-06-05 02:42:00,
2013-06-04 22:45:00,65.3,46.2,30.08,NW,325,3.0,5.0,50,0.00,,BKN250,0.00,0.00,VWS V14.01,2013-06-05 02:45:00,
2013-06-04 22:47:00,65.3,45.7,30.08,WNW,292,0.0,4.0,49,0.00,,FEW250,0.00,0.00,VWS V14.01,2013-06-05 02:47:00,
2013-06-04 22:50:00,65.2,46.1,30.08,NNW,333,0.0,6.0,50,0.00,,BKN250,0.00,0.00,VWS V14.01,2013-06-05 02:50:00,
2013-06-04 22:52:00,65.3,45.7,30.08,NNW,333,0.0,6.0,49,0.00,,FEW250,0.00,0.00,VWS V14.01,2013-06-05 02:52:00,
2013-06-04 22:55:00,65.1,46.0,30.08,WNW,296,1.0,4.0,50,0.00,,BKN250,0.00,0.00,VWS V14.01,2013-06-05 02:55:00,
2013-06-04 22:57:00,65.2,46.1,30.08,WNW,297,2.0,4.0,50,0.00,,FEW250,0.00,0.00,VWS V14.01,2013-06-05 02:57:00,
2013-06-04 23:00:00,65.0,46.5,30.08,West,276,4.0,5.0,51,0.00,,BKN250,0.00,0.00,VWS V14.01,2013-06-05 03:00:00,
2013-06-04 23:02:00,65.0,46.5,30.08,WNW,296,1.0,2.0,51,0.00,,FEW250,0.00,0.00,VWS V14.01,2013-06-05 03:02:00,
2013-06-04 23:05:00,64.8,46.3,30.08,WNW,300,4.0,5.0,51,0.00,,BKN250,0.00,0.00,VWS V14.01,2013-06-05 03:05:00,
2013-06-04 23:07:00,64.9,46.4,30.08,West,271,0.0,4.0,51,0.00,,FEW250,0.00,0.00,VWS V14.01,2013-06-05 03:07:00,
2013-06-04 23:10:00,64.7,46.7,30.08,WNW,302,2.0,4.0,52,0.00,,BKN250,0.00,0.00,VWS V14.01,2013-06-05 03:10:00,
2013-06-04 23:12:00,64.7,46.7,30.08,WNW,302,0.0,4.0,52,0.00,,FEW250,0.00,0.00,VWS V14.01,2013-06-05 03:12:00,
2013-06-04 23:15:00,64.4,46.9,30.08,WNW,293,1.0,3.0,53,0.00,,BKN250,0.00,0.00,VWS V14.01,2013-06-05 03:15:00,
2013-06-04 23:17:00,64.5,47.0,30.08,WNW,293,0.0,3.0,53,0.00,,FEW250,0.00,0.00,VWS V14.01,2013-06-05 03:17:00,
2013-06-04 23:20:00,64.2,47.2,30.08,WNW,293,0.0,3.0,54,0.00,,BKN250,0.00,0.00,VWS V14.01,2013-06-05 03:20:00,
2013-06-04 23:22:00,64.3,47.3,30.08,WNW,293,0.0,3.0,54,0.00,,FEW250,0.00,0.00,VWS V14.01,2013-06-05 03:22:00,
2013-06-04 23:25:00,63.9,47.9,30.09,WNW,293,0.0,1.0,56,0.00,,BKN250,0.00,0.00,VWS V14.01,2013-06-05 03:25:00,
2013-06-04 23:27:00,64.0,47.5,30.09,WNW,293,0.0,1.0,55,0.00,,FEW250,0.00,0.00,VWS V14.01,2013-06-05 03:27:00,
2013-06-04 23:30:00,63.5,48.5,30.09,WNW,293,0.0,1.0,58,0.00,,BKN250,0.00,0.00,VWS V14.01,2013-06-05 03:30:00,
2013-06-04 23:32:00,63.6,48.1,30.09,WNW,293,0.0,1.0,57,0.00,,FEW250,0.00,0.00,VWS V14.01,2013-06-05 03:32:00,
2013-06-04 23:35:00,63.2,47.7,30.09,WNW,293,0.0,1.0,57,0.00,,BKN250,0.00,0.00,VWS V14.01,2013-06-05 03:35:00,
2013-06-04 23:37:00,63.3,47.8,30.09,WNW,293,0.0,1.0,57,0.00,,FEW250,0.00,0.00,VWS V14.01,2013-06-05 03:37:00,
2013-06-04 23:40:00,63.0,48.5,30.09,WNW,293,0.0,0.0,59,0.00,,BKN250,0.00,0.00,VWS V14.01,2013-06-05 03:40:00,
2013-06-04 23:42:00,63.1,47.6,30.09,WNW,293,0.0,0.0,57,0.00,,FEW250,0.00,0.00,VWS V14.01,2013-06-05 03:42:00,
2013-06-04 23:45:00,62.5,48.4,30.09,WNW,293,0.0,0.0,60,0.00,,BKN250,0.00,0.00,VWS V14.01,2013-06-05 03:45:00,
2013-06-04 23:47:00,62.7,48.2,30.09,WNW,293,0.0,0.0,59,0.00,,FEW250,0.00,0.00,VWS V14.01,2013-06-05 03:47:00,
2013-06-04 23:50:00,62.2,48.2,30.09,WNW,293,0.0,0.0,60,0.00,,BKN250,0.00,0.00,VWS V14.01,2013-06-05 03:50:00,
2013-06-04 23:52:00,62.3,48.7,30.09,WNW,293,0.0,0.0,61,0.00,,FEW250,0.00,0.00,VWS V14.01,2013-06-05 03:52:00,
2013-06-04 23:55:00,61.9,47.9,30.09,WNW,293,0.0,0.0,60,0.00,,BKN250,0.00,0.00,VWS V14.01,2013-06-05 03:55:00,
2013-06-04 23:57:00,62.0,48.0,30.09,WNW,293,0.0,0.0,60,0.00,,FEW250,0.00,0.00,VWS V14.01,2013-06-05 03:57:00,